| time (UTC) | temp F | wind direction | speed knots | gust knots | rain 1hr in | rain 24hr in | rain mn in | humidity % | barometer mb |
| 20260504221101 | 62 | 134 | 1.7 | 2.6 | 0.00 | 0.00 | 0.00 | 45 | 934.2 |
| 20260504221001 | 62 | 130 | 2.6 | 2.6 | 0.00 | 0.00 | 0.00 | 45 | 934.0 |
| 20260504220901 | 62 | 144 | 1.7 | 2.6 | 0.00 | 0.00 | 0.00 | 45 | 934.1 |
| 20260504220801 | 62 | 136 | 1.7 | 3.5 | 0.00 | 0.00 | 0.00 | 44 | 934.2 |
| 20260504220701 | 62 | 122 | 2.6 | 3.5 | 0.00 | 0.00 | 0.00 | 45 | 934.2 |
| 20260504220601 | 62 | 121 | 1.7 | 2.6 | 0.00 | 0.00 | 0.00 | 45 | 934.1 |
| 20260504220500 | 62 | 120 | 1.7 | 2.6 | 0.00 | 0.00 | 0.00 | 45 | 934.0 |
| 20260504220401 | 62 | 126 | 2.6 | 2.6 | 0.00 | 0.00 | 0.00 | 44 | 934.0 |
| 20260504220301 | 62 | 144 | 2.6 | 3.5 | 0.00 | 0.00 | 0.00 | 44 | 933.9 |
| 20260504220200 | 62 | 114 | 2.6 | 2.6 | 0.00 | 0.00 | 0.00 | 44 | 934.1 |
| 20260504220101 | 62 | 129 | 2.6 | 3.5 | 0.00 | 0.00 | 0.00 | 45 | 934.0 |
| 20260504220002 | 62 | 131 | 2.6 | 3.5 | 0.00 | 0.00 | 0.00 | 45 | 934.0 |
| 20260504215901 | 62 | 125 | 2.6 | 2.6 | 0.00 | 0.00 | 0.00 | 45 | 934.1 |
| 20260504215801 | 62 | 126 | 2.6 | 2.6 | 0.00 | 0.00 | 0.00 | 45 | 934.1 |
| 20260504215701 | 62 | 145 | 2.6 | 3.5 | 0.00 | 0.00 | 0.00 | 45 | 934.2 |
| 20260504215600 | 62 | 119 | 2.6 | 2.6 | 0.00 | 0.00 | 0.00 | 45 | 934.0 |
| 20260504215501 | 62 | 138 | 2.6 | 3.5 | 0.00 | 0.00 | 0.00 | 45 | 934.1 |
| 20260504215406 | 62 | 138 | 2.6 | 3.5 | 0.00 | 0.00 | 0.00 | 45 | 934.3 |
| 20260504215300 | 62 | 129 | 2.6 | 3.5 | 0.00 | 0.00 | 0.00 | 45 | 934.3 |
| 20260504215201 | 62 | 120 | 2.6 | 3.5 | 0.00 | 0.00 | 0.00 | 45 | 934.2 |
| 20260504215101 | 62 | 152 | 2.6 | 3.5 | 0.00 | 0.00 | 0.00 | 45 | 934.0 |
| 20260504215001 | 62 | 155 | 2.6 | 3.5 | 0.00 | 0.00 | 0.00 | 45 | 934.3 |
| 20260504214901 | 62 | 131 | 1.7 | 2.6 | 0.00 | 0.00 | 0.00 | 46 | 934.4 |
| 20260504214801 | 62 | 111 | 2.6 | 2.6 | 0.00 | 0.00 | 0.00 | 46 | 934.4 |
| 20260504214701 | 62 | 130 | 2.6 | 2.6 | 0.00 | 0.00 | 0.00 | 46 | 934.3 |
| 20260504214601 | 61 | 138 | 1.7 | 3.5 | 0.00 | 0.00 | 0.00 | 46 | 934.3 |
| 20260504214501 | 61 | 125 | 2.6 | 3.5 | 0.00 | 0.00 | 0.00 | 46 | 934.5 |
| 20260504214400 | 62 | 122 | 1.7 | 2.6 | 0.00 | 0.00 | 0.00 | 46 | 934.3 |
| 20260504214300 | 62 | 124 | 1.7 | 2.6 | 0.00 | 0.00 | 0.00 | 46 | 934.5 |
| 20260504214201 | 62 | 129 | 1.7 | 2.6 | 0.00 | 0.00 | 0.00 | 46 | 934.3 |
| 20260504214101 | 62 | 140 | 1.7 | 2.6 | 0.00 | 0.00 | 0.00 | 46 | 934.4 |
| 20260504214001 | 62 | 129 | 2.6 | 2.6 | 0.00 | 0.00 | 0.00 | 46 | 934.7 |
| 20260504213901 | 62 | 136 | 1.7 | 2.6 | 0.00 | 0.00 | 0.00 | 46 | 934.6 |
| 20260504213800 | 62 | 131 | 2.6 | 2.6 | 0.00 | 0.00 | 0.00 | 46 | 934.2 |
| 20260504213701 | 62 | 122 | 1.7 | 2.6 | 0.00 | 0.00 | 0.00 | 45 | 934.3 |
| 20260504213602 | 62 | 130 | 2.6 | 3.5 | 0.00 | 0.00 | 0.00 | 45 | 934.3 |
| 20260504213501 | 62 | 120 | 2.6 | 2.6 | 0.00 | 0.00 | 0.00 | 46 | 934.3 |
| 20260504213401 | 62 | 127 | 1.7 | 2.6 | 0.00 | 0.00 | 0.00 | 46 | 934.4 |
| 20260504213301 | 62 | 163 | 1.7 | 2.6 | 0.00 | 0.00 | 0.00 | 45 | 934.3 |
| 20260504213201 | 62 | 136 | 1.7 | 2.6 | 0.00 | 0.00 | 0.00 | 45 | 934.4 |
| 20260504213101 | 62 | 126 | 1.7 | 2.6 | 0.00 | 0.00 | 0.00 | 45 | 934.5 |
| 20260504213000 | 62 | 147 | 1.7 | 2.6 | 0.00 | 0.00 | 0.00 | 45 | 934.4 |
| 20260504212901 | 62 | 138 | 1.7 | 3.5 | 0.00 | 0.00 | 0.00 | 45 | 934.4 |
| 20260504212801 | 62 | 141 | 2.6 | 3.5 | 0.00 | 0.00 | 0.00 | 45 | 934.3 |
| 20260504212701 | 63 | 141 | 2.6 | 2.6 | 0.00 | 0.00 | 0.00 | 44 | 934.5 |
| 20260504212600 | 63 | 171 | 1.7 | 2.6 | 0.00 | 0.00 | 0.00 | 45 | 934.5 |
| 20260504212502 | 63 | 110 | 1.7 | 2.6 | 0.00 | 0.00 | 0.00 | 44 | 934.6 |
| 20260504212401 | 63 | 149 | 1.7 | 3.5 | 0.00 | 0.00 | 0.00 | 44 | 934.3 |
| 20260504212301 | 62 | 155 | 2.6 | 3.5 | 0.00 | 0.00 | 0.00 | 44 | 934.6 |
| 20260504212200 | 62 | 131 | 2.6 | 3.5 | 0.00 | 0.00 | 0.00 | 44 | 934.7 |
| 20260504212101 | 62 | 141 | 1.7 | 2.6 | 0.00 | 0.00 | 0.00 | 45 | 934.3 |
| 20260504212001 | 62 | 142 | 1.7 | 3.5 | 0.00 | 0.00 | 0.00 | 45 | 934.4 |
| 20260504211905 | 62 | 142 | 1.7 | 3.5 | 0.00 | 0.00 | 0.00 | 45 | 934.4 |
| 20260504211801 | 62 | 145 | 1.7 | 2.6 | 0.00 | 0.00 | 0.00 | 45 | 934.5 |
| 20260504211701 | 62 | 145 | 1.7 | 2.6 | 0.00 | 0.00 | 0.00 | 45 | 934.5 |
| 20260504211601 | 63 | 141 | 2.6 | 2.6 | 0.00 | 0.00 | 0.00 | 45 | 934.5 |
| 20260504211501 | 63 | 160 | 1.7 | 2.6 | 0.00 | 0.00 | 0.00 | 45 | 934.5 |
| 20260504211401 | 63 | 137 | 2.6 | 3.5 | 0.00 | 0.00 | 0.00 | 45 | 934.5 |
| 20260504211301 | 63 | 123 | 2.6 | 3.5 | 0.00 | 0.00 | 0.00 | 44 | 934.5 |
| 20260504211200 | 63 | 147 | 2.6 | 2.6 | 0.00 | 0.00 | 0.00 | 45 | 934.6 |
| 20260504211101 | 63 | 160 | 1.7 | 3.5 | 0.00 | 0.00 | 0.00 | 45 | 934.5 |
| 20260504211000 | 63 | 130 | 2.6 | 3.5 | 0.00 | 0.00 | 0.00 | 44 | 934.6 |
| 20260504210901 | 63 | 128 | 2.6 | 3.5 | 0.00 | 0.00 | 0.00 | 44 | 934.5 |
| 20260504210801 | 63 | 139 | 2.6 | 3.5 | 0.00 | 0.00 | 0.00 | 45 | 934.4 |
| 20260504210701 | 63 | 129 | 3.5 | 3.5 | 0.00 | 0.00 | 0.00 | 44 | 934.3 |
| 20260504210601 | 63 | 132 | 2.6 | 3.5 | 0.00 | 0.00 | 0.00 | 45 | 934.5 |
| 20260504210501 | 63 | 129 | 2.6 | 4.3 | 0.00 | 0.00 | 0.00 | 45 | 934.5 |
| 20260504210401 | 63 | 131 | 2.6 | 3.5 | 0.00 | 0.00 | 0.00 | 45 | 934.6 |
| 20260504210301 | 63 | 166 | 2.6 | 3.5 | 0.00 | 0.00 | 0.00 | 45 | 934.6 |
| 20260504210201 | 63 | 152 | 1.7 | 2.6 | 0.00 | 0.00 | 0.00 | 46 | 934.4 |
| 20260504210100 | 63 | 130 | 1.7 | 3.5 | 0.00 | 0.00 | 0.00 | 46 | 934.7 |
| 20260504210001 | 63 | 128 | 2.6 | 3.5 | 0.00 | 0.00 | 0.00 | 44 | 934.4 |
| 20260504205901 | 63 | 139 | 3.5 | 3.5 | 0.00 | 0.00 | 0.00 | 44 | 934.6 |
| 20260504205801 | 63 | 142 | 2.6 | 3.5 | 0.00 | 0.00 | 0.00 | 45 | 934.5 |
| 20260504205701 | 63 | 124 | 2.6 | 3.5 | 0.00 | 0.00 | 0.00 | 45 | 934.7 |
| 20260504205601 | 63 | 179 | 2.6 | 3.5 | 0.00 | 0.00 | 0.00 | 45 | 934.7 |
| 20260504205501 | 63 | 141 | 2.6 | 3.5 | 0.00 | 0.00 | 0.00 | 45 | 934.7 |
| 20260504205400 | 63 | 151 | 2.6 | 3.5 | 0.00 | 0.00 | 0.00 | 45 | 934.6 |
| 20260504205303 | 63 | 157 | 2.6 | 3.5 | 0.00 | 0.00 | 0.00 | 45 | 934.6 |
| 20260504205201 | 63 | 148 | 1.7 | 2.6 | 0.00 | 0.00 | 0.00 | 46 | 934.6 |
| 20260504205101 | 63 | 155 | 2.6 | 3.5 | 0.00 | 0.00 | 0.00 | 45 | 934.8 |
| 20260504205001 | 63 | 159 | 1.7 | 3.5 | 0.00 | 0.00 | 0.00 | 46 | 934.6 |
| 20260504204901 | 63 | 136 | 1.7 | 3.5 | 0.00 | 0.00 | 0.00 | 45 | 934.7 |
| 20260504204801 | 63 | 141 | 2.6 | 3.5 | 0.00 | 0.00 | 0.00 | 45 | 934.8 |
| 20260504204701 | 63 | 150 | 2.6 | 3.5 | 0.00 | 0.00 | 0.00 | 45 | 934.8 |
| 20260504204601 | 63 | 120 | 2.6 | 4.3 | 0.00 | 0.00 | 0.00 | 45 | 934.6 |
| 20260504204501 | 63 | 143 | 2.6 | 5.2 | 0.00 | 0.00 | 0.00 | 45 | 934.7 |
| 20260504204401 | 63 | 161 | 3.5 | 5.2 | 0.00 | 0.00 | 0.00 | 45 | 934.7 |
| 20260504204300 | 63 | 142 | 2.6 | 4.3 | 0.00 | 0.00 | 0.00 | 45 | 934.7 |
| 20260504204201 | 63 | 142 | 2.6 | 3.5 | 0.00 | 0.00 | 0.00 | 45 | 934.7 |
| 20260504204101 | 63 | 144 | 2.6 | 3.5 | 0.00 | 0.00 | 0.00 | 46 | 934.9 |
| 20260504204000 | 63 | 154 | 2.6 | 3.5 | 0.00 | 0.00 | 0.00 | 46 | 934.8 |
| 20260504203902 | 63 | 147 | 2.6 | 3.5 | 0.00 | 0.00 | 0.00 | 46 | 934.7 |
| 20260504203801 | 63 | 158 | 2.6 | 3.5 | 0.00 | 0.00 | 0.00 | 46 | 934.7 |
| 20260504203700 | 63 | 176 | 2.6 | 3.5 | 0.00 | 0.00 | 0.00 | 46 | 934.8 |
| 20260504203601 | 63 | 154 | 2.6 | 3.5 | 0.00 | 0.00 | 0.00 | 46 | 934.8 |
| 20260504203501 | 63 | 157 | 2.6 | 3.5 | 0.00 | 0.00 | 0.00 | 46 | 934.6 |
| 20260504203400 | 63 | 163 | 2.6 | 3.5 | 0.00 | 0.00 | 0.00 | 46 | 934.6 |
| 20260504203301 | 63 | 155 | 2.6 | 3.5 | 0.00 | 0.00 | 0.00 | 46 | 934.8 |
| 20260504203201 | 62 | 151 | 2.6 | 3.5 | 0.00 | 0.00 | 0.00 | 47 | 934.8 |
| 20260504203101 | 63 | 139 | 2.6 | 2.6 | 0.00 | 0.00 | 0.00 | 47 | 934.6 |
| 20260504203000 | 63 | 159 | 1.7 | 2.6 | 0.00 | 0.00 | 0.00 | 48 | 934.6 |
| 20260504202901 | 63 | 153 | 1.7 | 3.5 | 0.00 | 0.00 | 0.00 | 47 | 934.7 |
| 20260504202802 | 63 | 146 | 2.6 | 3.5 | 0.00 | 0.00 | 0.00 | 47 | 934.6 |
| 20260504202701 | 63 | 140 | 2.6 | 2.6 | 0.00 | 0.00 | 0.00 | 47 | 934.7 |
| 20260504202601 | 63 | 145 | 1.7 | 2.6 | 0.00 | 0.00 | 0.00 | 47 | 934.7 |
| 20260504202500 | 63 | 129 | 0.9 | 2.6 | 0.00 | 0.00 | 0.00 | 48 | 934.8 |
| 20260504202401 | 63 | 139 | 2.6 | 2.6 | 0.00 | 0.00 | 0.00 | 47 | 934.6 |
| 20260504202301 | 63 | 154 | 1.7 | 2.6 | 0.00 | 0.00 | 0.00 | 48 | 934.7 |
| 20260504202201 | 63 | 145 | 1.7 | 2.6 | 0.00 | 0.00 | 0.00 | 47 | 934.7 |
| 20260504202101 | 63 | 147 | 1.7 | 3.5 | 0.00 | 0.00 | 0.00 | 48 | 934.9 |
| 20260504202001 | 63 | 144 | 2.6 | 3.5 | 0.00 | 0.00 | 0.00 | 47 | 934.6 |
| 20260504201901 | 63 | 136 | 2.6 | 2.6 | 0.00 | 0.00 | 0.00 | 47 | 934.8 |
| 20260504201802 | 63 | 124 | 2.6 | 2.6 | 0.00 | 0.00 | 0.00 | 48 | 934.7 |
| 20260504201701 | 63 | 146 | 1.7 | 2.6 | 0.00 | 0.00 | 0.00 | 47 | 934.7 |
| 20260504201600 | 63 | 157 | 1.7 | 2.6 | 0.00 | 0.00 | 0.00 | 48 | 934.9 |
| 20260504201501 | 63 | 157 | 1.7 | 2.6 | 0.00 | 0.00 | 0.00 | 48 | 934.9 |
| 20260504201401 | 63 | 113 | 1.7 | 2.6 | 0.00 | 0.00 | 0.00 | 48 | 934.6 |
| 20260504201300 | 63 | 130 | 0.9 | 2.6 | 0.00 | 0.00 | 0.00 | 49 | 934.7 |
| 20260504201200 | 63 | 142 | 2.6 | 2.6 | 0.00 | 0.00 | 0.00 | 48 | 934.6 |
| 20260504201101 | 63 | 156 | 1.7 | 2.6 | 0.00 | 0.00 | 0.00 | 48 | 934.7 |
| 20260504201001 | 63 | 127 | 1.7 | 2.6 | 0.00 | 0.00 | 0.00 | 48 | 934.8 |
| 20260504200901 | 63 | 119 | 2.6 | 2.6 | 0.00 | 0.00 | 0.00 | 48 | 934.8 |
| 20260504200800 | 63 | 144 | 2.6 | 2.6 | 0.00 | 0.00 | 0.00 | 49 | 934.8 |
| 20260504200701 | 63 | 141 | 1.7 | 2.6 | 0.00 | 0.00 | 0.00 | 49 | 934.9 |
| 20260504200600 | 63 | 161 | 1.7 | 2.6 | 0.00 | 0.00 | 0.00 | 49 | 934.6 |
| 20260504200501 | 63 | 138 | 1.7 | 1.7 | 0.00 | 0.00 | 0.00 | 49 | 934.8 |
| 20260504200401 | 63 | 154 | 0.9 | 1.7 | 0.00 | 0.00 | 0.00 | 50 | 934.7 |
| 20260504200301 | 63 | 126 | 0.9 | 1.7 | 0.00 | 0.00 | 0.00 | 49 | 934.8 |
| 20260504200201 | 63 | 134 | 1.7 | 2.6 | 0.00 | 0.00 | 0.00 | 49 | 935.0 |
| 20260504200001 | 63 | 117 | 1.7 | 2.6 | 0.00 | 0.00 | 0.00 | 49 | 934.9 |
| 20260504195901 | 63 | 125 | 1.7 | 2.6 | 0.00 | 0.00 | 0.00 | 49 | 934.9 |
| 20260504195802 | 64 | 152 | 1.7 | 2.6 | 0.00 | 0.00 | 0.00 | 49 | 934.6 |
| 20260504195700 | 64 | 155 | 1.7 | 1.7 | 0.00 | 0.00 | 0.00 | 49 | 934.7 |
| 20260504195601 | 64 | 129 | 1.7 | 2.6 | 0.00 | 0.00 | 0.00 | 48 | 934.7 |
| 20260504195501 | 64 | 143 | 1.7 | 2.6 | 0.00 | 0.00 | 0.00 | 48 | 934.9 |
| 20260504195401 | 64 | 119 | 1.7 | 2.6 | 0.00 | 0.00 | 0.00 | 48 | 934.8 |
| 20260504195301 | 64 | 146 | 2.6 | 3.5 | 0.00 | 0.00 | 0.00 | 48 | 934.9 |
| 20260504195201 | 64 | 127 | 1.7 | 3.5 | 0.00 | 0.00 | 0.00 | 48 | 934.6 |
| 20260504195101 | 64 | 107 | 1.7 | 3.5 | 0.00 | 0.00 | 0.00 | 48 | 934.7 |
| 20260504195001 | 64 | 134 | 1.7 | 3.5 | 0.00 | 0.00 | 0.00 | 48 | 934.7 |
| 20260504194901 | 64 | 131 | 1.7 | 2.6 | 0.00 | 0.00 | 0.00 | 49 | 934.8 |
| 20260504194801 | 64 | 122 | 1.7 | 2.6 | 0.00 | 0.00 | 0.00 | 49 | 934.7 |
| 20260504194701 | 64 | 116 | 1.7 | 2.6 | 0.00 | 0.00 | 0.00 | 49 | 935.0 |
| 20260504194601 | 64 | 130 | 1.7 | 1.7 | 0.00 | 0.00 | 0.00 | 50 | 934.7 |
| 20260504194501 | 64 | 133 | 1.7 | 1.7 | 0.00 | 0.00 | 0.00 | 50 | 934.7 |
| 20260504194401 | 64 | 119 | 1.7 | 2.6 | 0.00 | 0.00 | 0.00 | 49 | 934.7 |
| 20260504194301 | 64 | 129 | 2.6 | 2.6 | 0.00 | 0.00 | 0.00 | 49 | 934.9 |
| 20260504194201 | 64 | 121 | 1.7 | 1.7 | 0.00 | 0.00 | 0.00 | 49 | 934.9 |
| 20260504194101 | 64 | 120 | 0.9 | 1.7 | 0.00 | 0.00 | 0.00 | 51 | 935.0 |
| 20260504194001 | 64 | 118 | 0.9 | 1.7 | 0.00 | 0.00 | 0.00 | 50 | 935.0 |
| 20260504193900 | 63 | 129 | 1.7 | 1.7 | 0.00 | 0.00 | 0.00 | 51 | 935.2 |
| 20260504193801 | 63 | 120 | 1.7 | 1.7 | 0.00 | 0.00 | 0.00 | 49 | 935.0 |
| 20260504193701 | 63 | 114 | 0.9 | 1.7 | 0.00 | 0.00 | 0.00 | 53 | 934.7 |
| 20260504193600 | 64 | 100 | 0.9 | 0.9 | 0.00 | 0.00 | 0.00 | 52 | 934.8 |
| 20260504193501 | 64 | 110 | 0.9 | 1.7 | 0.00 | 0.00 | 0.00 | 52 | 935.0 |
| 20260504193401 | 64 | 114 | 0.9 | 1.7 | 0.00 | 0.00 | 0.00 | 52 | 934.9 |
| 20260504193301 | 64 | 115 | 1.7 | 1.7 | 0.00 | 0.00 | 0.00 | 52 | 934.9 |
| 20260504193203 | 63 | 98 | 0.9 | 1.7 | 0.00 | 0.00 | 0.00 | 52 | 934.8 |
| 20260504193102 | 63 | 109 | 1.7 | 1.7 | 0.00 | 0.00 | 0.00 | 52 | 934.7 |
| 20260504193002 | 63 | 97 | 1.7 | 1.7 | 0.00 | 0.00 | 0.00 | 53 | 935.0 |
| 20260504192901 | 63 | 74 | 0.9 | 1.7 | 0.00 | 0.00 | 0.00 | 55 | 934.9 |
| 20260504192701 | 63 | 103 | 0.9 | 1.7 | 0.00 | 0.00 | 0.00 | 55 | 934.8 |
| 20260504192600 | 63 | 83 | 0.9 | 0.9 | 0.00 | 0.00 | 0.00 | 56 | 934.9 |
| 20260504192501 | 63 | 69 | 0.9 | 1.7 | 0.00 | 0.00 | 0.00 | 55 | 934.9 |
| 20260504192401 | 64 | 83 | 0.9 | 0.9 | 0.00 | 0.00 | 0.00 | 55 | 935.0 |
| 20260504192301 | 64 | 100 | 0.9 | 1.7 | 0.00 | 0.00 | 0.00 | 56 | 934.9 |
| 20260504192201 | 64 | 95 | 0.9 | 1.7 | 0.00 | 0.00 | 0.00 | 55 | 934.8 |
| 20260504192101 | 64 | 61 | 0.9 | 1.7 | 0.00 | 0.00 | 0.00 | 54 | 934.9 |
| 20260504192001 | 64 | 76 | 0.9 | 1.7 | 0.00 | 0.00 | 0.00 | 55 | 935.0 |
| 20260504191901 | 64 | 56 | 0.9 | 1.7 | 0.00 | 0.00 | 0.00 | 55 | 934.9 |
| 20260504191801 | 63 | 51 | 0.9 | 1.7 | 0.00 | 0.00 | 0.00 | 55 | 934.8 |
| 20260504191700 | 63 | 59 | 0.9 | 0.9 | 0.00 | 0.00 | 0.00 | 56 | 934.9 |
| 20260504191601 | 63 | 56 | 0.9 | 1.7 | 0.00 | 0.00 | 0.00 | 56 | 934.9 |
| 20260504191501 | 63 | 56 | 0.9 | 1.7 | 0.00 | 0.00 | 0.00 | 56 | 934.9 |
| 20260504191401 | 63 | 61 | 0.9 | 1.7 | 0.00 | 0.00 | 0.00 | 56 | 934.8 |
| 20260504191301 | 63 | 73 | 0.9 | 1.7 | 0.00 | 0.00 | 0.00 | 57 | 934.9 |
| 20260504191201 | 63 | 48 | 0.9 | 0.9 | 0.00 | 0.00 | 0.00 | 57 | 934.9 |
| 20260504191101 | 63 | 49 | 0.9 | 0.9 | 0.00 | 0.00 | 0.00 | 56 | 934.6 |
| 20260504191001 | 63 | 41 | 0.9 | 0.9 | 0.00 | 0.00 | 0.00 | 56 | 934.8 |
| 20260504190901 | 64 | 53 | 0.9 | 0.9 | 0.00 | 0.00 | 0.00 | 56 | 934.9 |
| 20260504190801 | 63 | 45 | 0.9 | 0.9 | 0.00 | 0.00 | 0.00 | 56 | 934.9 |
| 20260504190701 | 63 | 41 | 0.9 | 0.9 | 0.00 | 0.00 | 0.00 | 56 | 934.8 |
| 20260504190601 | 63 | 45 | 0.9 | 0.9 | 0.00 | 0.00 | 0.00 | 56 | 935.0 |
| 20260504190501 | 63 | 46 | 0.9 | 1.7 | 0.00 | 0.00 | 0.00 | 56 | 934.7 |
| 20260504190401 | 63 | 53 | 0.9 | 1.7 | 0.00 | 0.00 | 0.00 | 56 | 934.9 |
| 20260504190300 | 64 | 34 | 0.9 | 1.7 | 0.00 | 0.00 | 0.00 | 56 | 934.8 |
| 20260504190201 | 64 | 45 | 1.7 | 1.7 | 0.00 | 0.00 | 0.00 | 56 | 934.8 |
| 20260504190101 | 64 | 42 | 1.7 | 1.7 | 0.00 | 0.00 | 0.00 | 56 | 934.7 |
| 20260504190001 | 64 | 41 | 1.7 | 1.7 | 0.00 | 0.00 | 0.00 | 55 | 934.9 |
| 20260504185901 | 64 | 60 | 0.9 | 1.7 | 0.00 | 0.00 | 0.00 | 55 | 934.9 |
| 20260504185801 | 64 | 41 | 0.9 | 1.7 | 0.00 | 0.00 | 0.00 | 55 | 934.8 |
| 20260504185701 | 64 | 48 | 0.9 | 1.7 | 0.00 | 0.00 | 0.00 | 54 | 934.8 |
| 20260504185601 | 64 | 51 | 1.7 | 1.7 | 0.00 | 0.00 | 0.00 | 55 | 934.9 |
| 20260504185501 | 64 | 54 | 0.9 | 0.9 | 0.00 | 0.00 | 0.00 | 55 | 934.6 |
| 20260504185401 | 64 | 47 | 0.9 | 1.7 | 0.00 | 0.00 | 0.00 | 54 | 934.8 |
| 20260504185301 | 64 | 38 | 0.9 | 1.7 | 0.00 | 0.00 | 0.00 | 54 | 934.9 |
| 20260504185201 | 64 | 39 | 0.9 | 1.7 | 0.00 | 0.00 | 0.00 | 54 | 934.8 |
| 20260504185101 | 64 | 43 | 0.9 | 1.7 | 0.00 | 0.00 | 0.00 | 54 | 935.0 |
| 20260504185001 | 64 | 50 | 0.9 | 0.9 | 0.00 | 0.00 | 0.00 | 54 | 935.0 |
| 20260504184901 | 64 | 48 | 0.9 | 0.9 | 0.00 | 0.00 | 0.00 | 54 | 934.9 |
| 20260504184801 | 64 | 42 | 0.9 | 0.9 | 0.00 | 0.00 | 0.00 | 54 | 934.8 |
| 20260504184701 | 64 | 44 | 0.9 | 0.9 | 0.00 | 0.00 | 0.00 | 54 | 934.9 |
| 20260504184601 | 64 | 40 | 0.9 | 0.9 | 0.00 | 0.00 | 0.00 | 54 | 934.8 |
| 20260504184501 | 64 | 40 | 0.9 | 0.9 | 0.00 | 0.00 | 0.00 | 54 | 934.9 |
| 20260504184402 | 64 | 51 | 0.9 | 0.9 | 0.00 | 0.00 | 0.00 | 54 | 934.7 |
| 20260504184301 | 64 | 50 | 0.9 | 0.9 | 0.00 | 0.00 | 0.00 | 54 | 934.7 |
| 20260504184201 | 64 | 52 | 0.9 | 0.9 | 0.00 | 0.00 | 0.00 | 54 | 934.9 |
| 20260504184101 | 64 | 55 | 0.9 | 1.7 | 0.00 | 0.00 | 0.00 | 54 | 934.6 |
| 20260504184001 | 64 | 49 | 0.9 | 1.7 | 0.00 | 0.00 | 0.00 | 54 | 934.8 |
| 20260504183901 | 64 | 43 | 0.9 | 0.9 | 0.00 | 0.00 | 0.00 | 55 | 934.7 |
| 20260504183801 | 64 | 41 | 0.9 | 1.7 | 0.00 | 0.00 | 0.00 | 54 | 934.7 |
| 20260504183701 | 64 | 45 | 0.9 | 1.7 | 0.00 | 0.00 | 0.00 | 54 | 934.8 |
| 20260504183601 | 64 | 40 | 0.9 | 1.7 | 0.00 | 0.00 | 0.00 | 54 | 934.6 |
| 20260504183500 | 64 | 37 | 0.9 | 1.7 | 0.00 | 0.00 | 0.00 | 54 | 934.7 |
| 20260504183401 | 64 | 34 | 0.9 | 0.9 | 0.00 | 0.00 | 0.00 | 54 | 934.9 |
| 20260504183301 | 64 | 47 | 0.9 | 0.9 | 0.00 | 0.00 | 0.00 | 54 | 934.8 |
| 20260504183201 | 64 | 43 | 0.9 | 0.9 | 0.00 | 0.00 | 0.00 | 54 | 934.7 |
| 20260504183100 | 64 | 41 | 0.9 | 0.9 | 0.00 | 0.00 | 0.00 | 54 | 934.7 |
| 20260504183001 | 64 | 46 | 0.9 | 1.7 | 0.00 | 0.00 | 0.00 | 54 | 934.7 |
| 20260504182901 | 64 | 44 | 0.9 | 1.7 | 0.00 | 0.00 | 0.00 | 54 | 934.6 |
| 20260504182801 | 64 | 35 | 0.9 | 1.7 | 0.00 | 0.00 | 0.00 | 54 | 934.7 |
| 20260504182701 | 64 | 39 | 0.9 | 0.9 | 0.00 | 0.00 | 0.00 | 54 | 934.7 |
| 20260504182600 | 64 | 35 | 0.9 | 0.9 | 0.00 | 0.00 | 0.00 | 54 | 934.6 |
| 20260504182501 | 64 | 46 | 0.9 | 0.9 | 0.00 | 0.00 | 0.00 | 55 | 934.8 |
| 20260504182401 | 64 | 44 | 0.9 | 0.9 | 0.00 | 0.00 | 0.00 | 55 | 934.8 |
| 20260504182102 | 65 | 41 | 0.9 | 0.9 | 0.00 | 0.00 | 0.00 | 54 | 934.7 |
| 20260504182001 | 65 | 41 | 0.9 | 1.7 | 0.00 | 0.00 | 0.00 | 54 | 934.8 |
| 20260504181802 | 65 | 45 | 0.9 | 0.9 | 0.00 | 0.00 | 0.00 | 54 | 934.8 |
| 20260504181700 | 65 | 42 | 0.9 | 0.9 | 0.00 | 0.00 | 0.00 | 54 | 934.9 |
| 20260504181601 | 65 | 45 | 0.9 | 0.9 | 0.00 | 0.00 | 0.00 | 54 | 934.9 |
| 20260504181500 | 65 | 46 | 0.9 | 0.9 | 0.00 | 0.00 | 0.00 | 54 | 934.6 |
| 20260504181401 | 65 | 46 | 0.9 | 0.9 | 0.00 | 0.00 | 0.00 | 54 | 934.6 |
| 20260504181301 | 65 | 47 | 0.9 | 0.9 | 0.00 | 0.00 | 0.00 | 54 | 934.7 |
| 20260504181200 | 65 | 51 | 0.9 | 0.9 | 0.00 | 0.00 | 0.00 | 54 | 934.6 |
| 20260504181101 | 65 | 46 | 0.9 | 0.9 | 0.00 | 0.00 | 0.00 | 54 | 934.8 |
| 20260504181001 | 65 | 47 | 0.9 | 0.9 | 0.00 | 0.00 | 0.00 | 54 | 934.8 |
| 20260504180900 | 65 | 44 | 0.9 | 0.9 | 0.00 | 0.00 | 0.00 | 54 | 934.9 |
| 20260504180801 | 65 | 48 | 0.9 | 0.9 | 0.00 | 0.00 | 0.00 | 54 | 934.5 |
| 20260504180701 | 65 | 46 | 0.9 | 0.9 | 0.00 | 0.00 | 0.00 | 54 | 934.5 |
| 20260504180601 | 65 | 45 | 0.9 | 0.9 | 0.00 | 0.00 | 0.00 | 53 | 934.7 |
| 20260504180501 | 65 | 41 | 0.9 | 0.9 | 0.00 | 0.00 | 0.00 | 53 | 934.7 |
| 20260504180401 | 65 | 36 | 0.9 | 0.9 | 0.00 | 0.00 | 0.00 | 53 | 934.9 |
| 20260504180301 | 65 | 36 | 0.9 | 0.9 | 0.00 | 0.00 | 0.00 | 53 | 934.8 |
| 20260504180201 | 65 | 38 | 0.9 | 0.9 | 0.00 | 0.00 | 0.00 | 54 | 934.8 |
| 20260504180001 | 65 | 31 | 0.9 | 0.9 | 0.00 | 0.00 | 0.00 | 53 | 934.8 |
| 20260504175901 | 65 | 30 | 0.9 | 0.9 | 0.00 | 0.00 | 0.00 | 52 | 934.6 |
| 20260504175801 | 65 | 28 | 0.9 | 0.9 | 0.00 | 0.00 | 0.00 | 53 | 934.8 |
| 20260504175701 | 65 | 31 | 0.9 | 0.9 | 0.00 | 0.00 | 0.00 | 53 | 934.7 |
| 20260504175603 | 65 | 21 | 0.9 | 0.9 | 0.00 | 0.00 | 0.00 | 53 | 934.6 |
| 20260504175501 | 65 | 17 | 0.9 | 0.9 | 0.00 | 0.00 | 0.00 | 53 | 934.8 |
| 20260504175400 | 65 | 18 | 0.9 | 0.9 | 0.00 | 0.00 | 0.00 | 53 | 934.7 |
| 20260504175301 | 65 | 28 | 0.9 | 1.7 | 0.00 | 0.00 | 0.00 | 53 | 934.6 |
| 20260504175201 | 65 | 24 | 0.9 | 0.9 | 0.00 | 0.00 | 0.00 | 53 | 934.7 |
| 20260504175101 | 66 | 20 | 0.9 | 1.7 | 0.00 | 0.00 | 0.00 | 53 | 934.6 |
| 20260504175002 | 66 | 29 | 0.9 | 1.7 | 0.00 | 0.00 | 0.00 | 53 | 934.9 |
| 20260504174902 | 66 | 25 | 0.9 | 0.9 | 0.00 | 0.00 | 0.00 | 53 | 934.6 |
| 20260504174802 | 66 | 24 | 0.9 | 0.9 | 0.00 | 0.00 | 0.00 | 53 | 934.9 |
| 20260504174701 | 66 | 8 | 0.9 | 0.9 | 0.00 | 0.00 | 0.00 | 52 | 934.6 |
| 20260504174601 | 66 | 7 | 0.9 | 0.9 | 0.00 | 0.00 | 0.00 | 52 | 934.8 |
| 20260504174502 | 66 | 12 | 0.9 | 0.9 | 0.00 | 0.00 | 0.00 | 52 | 934.8 |
| 20260504174402 | 66 | 18 | 0.9 | 0.9 | 0.00 | 0.00 | 0.00 | 52 | 934.7 |
| 20260504174305 | 66 | 12 | 0.9 | 0.9 | 0.00 | 0.00 | 0.00 | 52 | 934.7 |
| 20260504174201 | 66 | 22 | 0.9 | 0.9 | 0.00 | 0.00 | 0.00 | 52 | 934.7 |
| 20260504174101 | 66 | 20 | 0.9 | 0.9 | 0.00 | 0.00 | 0.00 | 52 | 934.6 |
| 20260504174001 | 66 | 26 | 0.9 | 0.9 | 0.00 | 0.00 | 0.00 | 52 | 934.8 |
| 20260504173902 | 66 | 21 | 0.9 | 0.9 | 0.00 | 0.00 | 0.00 | 52 | 934.6 |
| 20260504173801 | 66 | 24 | 0.9 | 0.9 | 0.00 | 0.00 | 0.00 | 52 | 934.7 |
| 20260504173701 | 66 | 23 | 0.9 | 0.9 | 0.00 | 0.00 | 0.00 | 52 | 934.8 |
| 20260504173601 | 66 | 21 | 0.9 | 0.9 | 0.00 | 0.00 | 0.00 | 53 | 934.6 |
| 20260504173501 | 66 | 28 | 0.9 | 0.9 | 0.00 | 0.00 | 0.00 | 53 | 934.6 |
| 20260504173401 | 66 | 29 | 0.9 | 0.9 | 0.00 | 0.00 | 0.00 | 54 | 934.6 |
| 20260504173301 | 66 | 20 | 0.9 | 0.9 | 0.00 | 0.00 | 0.00 | 53 | 934.7 |
| 20260504173201 | 66 | 6 | 0.9 | 0.9 | 0.00 | 0.00 | 0.00 | 53 | 934.7 |
| 20260504173101 | 67 | 4 | 0.9 | 0.9 | 0.00 | 0.00 | 0.00 | 52 | 934.6 |
| 20260504173000 | 67 | 19 | 0.9 | 0.9 | 0.00 | 0.00 | 0.00 | 52 | 934.7 |
| 20260504172901 | 67 | 5 | 0.9 | 0.9 | 0.00 | 0.00 | 0.00 | 52 | 934.7 |
| 20260504172801 | 67 | 17 | 0.9 | 0.9 | 0.00 | 0.00 | 0.00 | 51 | 934.8 |
| 20260504172701 | 67 | 13 | 0.9 | 0.9 | 0.00 | 0.00 | 0.00 | 52 | 934.6 |
| 20260504172601 | 67 | 353 | 0.9 | 0.9 | 0.00 | 0.00 | 0.00 | 50 | 934.7 |
| 20260504172500 | 68 | 352 | 0.9 | 0.9 | 0.00 | 0.00 | 0.00 | 50 | 934.7 |
| 20260504172401 | 68 | 85 | 0.9 | 0.9 | 0.00 | 0.00 | 0.00 | 49 | 934.7 |
| 20260504172300 | 68 | 95 | 0.0 | 0.9 | 0.00 | 0.00 | 0.00 | 50 | 934.5 |
| 20260504172201 | 68 | 95 | 0.0 | 0.0 | 0.00 | 0.00 | 0.00 | 47 | 934.7 |
| 20260504172101 | 68 | 95 | 0.0 | 0.0 | 0.00 | 0.00 | 0.00 | 48 | 934.5 |
| 20260504172003 | 68 | 95 | 0.0 | 0.0 | 0.00 | 0.00 | 0.00 | 47 | 934.5 |
| 20260504171901 | 68 | 95 | 0.0 | 0.0 | 0.00 | 0.00 | 0.00 | 47 | 934.7 |
| 20260504171800 | 68 | 95 | 0.0 | 0.0 | 0.00 | 0.00 | 0.00 | 47 | 934.9 |
| 20260504171700 | 68 | 95 | 0.0 | 0.0 | 0.00 | 0.00 | 0.00 | 46 | 934.9 |
| 20260504171601 | 68 | 95 | 0.0 | 0.0 | 0.00 | 0.00 | 0.00 | 47 | 934.8 |
| 20260504171501 | 68 | 95 | 0.0 | 0.9 | 0.00 | 0.00 | 0.00 | 46 | 934.5 |
| 20260504171401 | 68 | 95 | 0.0 | 0.9 | 0.00 | 0.00 | 0.00 | 46 | 934.7 |
| 20260504171301 | 68 | 95 | 0.0 | 0.9 | 0.00 | 0.00 | 0.00 | 47 | 934.6 |
| 20260504171201 | 68 | 95 | 0.0 | 0.9 | 0.00 | 0.00 | 0.00 | 47 | 934.6 |
| 20260504171100 | 68 | 95 | 0.9 | 0.9 | 0.00 | 0.00 | 0.00 | 46 | 934.5 |
| 20260504171001 | 68 | 95 | 0.9 | 0.9 | 0.00 | 0.00 | 0.00 | 46 | 934.5 |
| 20260504170900 | 68 | 96 | 0.9 | 0.9 | 0.00 | 0.00 | 0.00 | 46 | 934.6 |
| 20260504170801 | 68 | 95 | 0.0 | 0.9 | 0.00 | 0.00 | 0.00 | 47 | 934.6 |
| 20260504170701 | 68 | 95 | 0.0 | 0.9 | 0.00 | 0.00 | 0.00 | 48 | 934.5 |
| 20260504170601 | 68 | 95 | 0.9 | 0.9 | 0.00 | 0.00 | 0.00 | 46 | 934.8 |
| 20260504170501 | 68 | 112 | 0.0 | 0.9 | 0.00 | 0.00 | 0.00 | 45 | 934.7 |
| 20260504170401 | 68 | 112 | 0.0 | 0.9 | 0.00 | 0.00 | 0.00 | 46 | 934.7 |
| 20260504170301 | 68 | 112 | 0.0 | 0.9 | 0.00 | 0.00 | 0.00 | 47 | 934.8 |
| 20260504170201 | 68 | 112 | 0.0 | 0.0 | 0.00 | 0.00 | 0.00 | 48 | 934.6 |
| 20260504160401 | 70 | 97 | 0.0 | 0.0 | 0.00 | 0.00 | 0.00 | 45 | 934.9 |
| 20260504160302 | 70 | 97 | 0.0 | 0.0 | 0.00 | 0.00 | 0.00 | 46 | 934.9 |
| 20260504160202 | 70 | 97 | 0.0 | 0.0 | 0.00 | 0.00 | 0.00 | 46 | 935.0 |
| 20260504151101 | 69 | 97 | 0.0 | 0.9 | 0.00 | 0.00 | 0.00 | 47 | 935.0 |
| 20260504151001 | 69 | 108 | 0.0 | 0.9 | 0.00 | 0.00 | 0.00 | 44 | 934.9 |
| 20260504150901 | 69 | 115 | 0.9 | 0.9 | 0.00 | 0.00 | 0.00 | 44 | 935.1 |
| 20260504150801 | 69 | 123 | 0.9 | 0.9 | 0.00 | 0.00 | 0.00 | 45 | 935.0 |
| 20260504150705 | 69 | 104 | 0.9 | 1.7 | 0.00 | 0.00 | 0.00 | 45 | 935.0 |
| 20260504150602 | 69 | 109 | 0.9 | 1.7 | 0.00 | 0.00 | 0.00 | 45 | 935.0 |
| 20260504150501 | 69 | 127 | 0.9 | 0.9 | 0.00 | 0.00 | 0.00 | 47 | 935.0 |
| 20260504150401 | 69 | 150 | 0.9 | 0.9 | 0.00 | 0.00 | 0.00 | 50 | 935.0 |
| 20260504150302 | 69 | 129 | 0.9 | 0.9 | 0.00 | 0.00 | 0.00 | 46 | 935.1 |
| 20260504150202 | 69 | 146 | 0.9 | 0.9 | 0.00 | 0.00 | 0.00 | 45 | 934.9 |
| 20260504141302 | 72 | 191 | 0.9 | 1.7 | 0.00 | 0.00 | 0.00 | 40 | 935.4 |
| 20260504141201 | 73 | 163 | 0.9 | 1.7 | 0.00 | 0.00 | 0.00 | 41 | 935.4 |
| 20260504141101 | 73 | 192 | 0.9 | 1.7 | 0.00 | 0.00 | 0.00 | 39 | 935.7 |
| 20260504141000 | 73 | 214 | 0.9 | 1.7 | 0.00 | 0.00 | 0.00 | 39 | 935.5 |
| 20260504140901 | 73 | 214 | 0.9 | 1.7 | 0.00 | 0.00 | 0.00 | 39 | 935.5 |
| 20260504140801 | 73 | 218 | 0.0 | 0.9 | 0.00 | 0.00 | 0.00 | 40 | 935.5 |
| 20260504140700 | 73 | 223 | 0.0 | 0.9 | 0.00 | 0.00 | 0.00 | 39 | 935.5 |
| 20260504140602 | 72 | 186 | 0.0 | 0.0 | 0.00 | 0.00 | 0.00 | 42 | 935.3 |
| 20260504140502 | 72 | 186 | 0.0 | 0.9 | 0.00 | 0.00 | 0.00 | 44 | 935.5 |
| 20260504140402 | 72 | 186 | 0.0 | 0.9 | 0.00 | 0.00 | 0.00 | 41 | 935.7 |
| 20260504140301 | 72 | 191 | 0.9 | 0.9 | 0.00 | 0.00 | 0.00 | 43 | 935.5 |
| 20260504140202 | 72 | 207 | 0.9 | 1.7 | 0.00 | 0.00 | 0.00 | 41 | 935.3 |
| 20260504130806 | 70 | 141 | 0.9 | 1.7 | 0.00 | 0.00 | 0.00 | 48 | 935.7 |
| 20260504130701 | 71 | 192 | 1.7 | 2.6 | 0.00 | 0.00 | 0.00 | 50 | 935.8 |
| 20260504130601 | 70 | 133 | 0.9 | 1.7 | 0.00 | 0.00 | 0.00 | 47 | 935.8 |
| 20260504130501 | 70 | 109 | 0.9 | 1.7 | 0.00 | 0.00 | 0.00 | 48 | 935.8 |
| 20260504130401 | 70 | 214 | 0.9 | 1.7 | 0.00 | 0.00 | 0.00 | 51 | 935.8 |
| 20260504130301 | 70 | 163 | 1.7 | 1.7 | 0.00 | 0.00 | 0.00 | 52 | 935.8 |
| 20260504130201 | 70 | 140 | 0.9 | 1.7 | 0.00 | 0.00 | 0.00 | 49 | 935.6 |
| 20260504120301 | 67 | 201 | 1.7 | 2.6 | 0.00 | 0.00 | 0.00 | 50 | 936.1 |
| 20260504120201 | 67 | 212 | 1.7 | 2.6 | 0.00 | 0.00 | 0.00 | 50 | 936.1 |
| 20260504110701 | 66 | 179 | 1.7 | 2.6 | 0.00 | 0.00 | 0.00 | 53 | 936.4 |
| 20260504110601 | 66 | 166 | 2.6 | 2.6 | 0.00 | 0.00 | 0.00 | 52 | 936.4 |
| 20260504110501 | 65 | 167 | 1.7 | 2.6 | 0.00 | 0.00 | 0.00 | 52 | 936.4 |
| 20260504110401 | 65 | 187 | 1.7 | 2.6 | 0.00 | 0.00 | 0.00 | 53 | 936.4 |
| 20260504110301 | 65 | 144 | 0.9 | 1.7 | 0.00 | 0.00 | 0.00 | 54 | 936.3 |
| 20260504110201 | 65 | 154 | 0.9 | 2.6 | 0.00 | 0.00 | 0.00 | 54 | 936.3 |
| 20260504100602 | 62 | 204 | 1.7 | 1.7 | 0.00 | 0.00 | 0.00 | 58 | 936.9 |
| 20260504100501 | 62 | 203 | 0.9 | 2.6 | 0.00 | 0.00 | 0.00 | 56 | 936.7 |
| 20260504100401 | 62 | 195 | 1.7 | 2.6 | 0.00 | 0.00 | 0.00 | 55 | 936.8 |
| 20260504100301 | 62 | 171 | 1.7 | 2.6 | 0.00 | 0.00 | 0.00 | 55 | 936.7 |
| 20260504100201 | 62 | 150 | 1.7 | 2.6 | 0.00 | 0.00 | 0.00 | 56 | 936.7 |
| 20260504082001 | 59 | 191 | 0.9 | 1.7 | 0.00 | 0.00 | 0.00 | 58 | 936.8 |
| 20260504081900 | 59 | 192 | 1.7 | 1.7 | 0.00 | 0.00 | 0.00 | 59 | 936.8 |
| 20260504081801 | 59 | 185 | 0.9 | 1.7 | 0.00 | 0.00 | 0.00 | 57 | 936.9 |
| 20260504081701 | 59 | 208 | 1.7 | 1.7 | 0.00 | 0.00 | 0.00 | 58 | 936.6 |
| 20260504081600 | 59 | 186 | 0.9 | 0.9 | 0.00 | 0.00 | 0.00 | 61 | 936.8 |
| 20260504081501 | 59 | 169 | 0.9 | 1.7 | 0.00 | 0.00 | 0.00 | 61 | 936.8 |
| 20260504081400 | 59 | 199 | 1.7 | 2.6 | 0.00 | 0.00 | 0.00 | 58 | 936.9 |
| 20260504081301 | 59 | 196 | 0.9 | 2.6 | 0.00 | 0.00 | 0.00 | 58 | 936.7 |
| 20260504081201 | 59 | 196 | 1.7 | 2.6 | 0.00 | 0.00 | 0.00 | 57 | 936.7 |
| 20260504081101 | 59 | 214 | 1.7 | 2.6 | 0.00 | 0.00 | 0.00 | 57 | 936.5 |
| 20260504081001 | 59 | 208 | 1.7 | 1.7 | 0.00 | 0.00 | 0.00 | 61 | 936.7 |
| 20260504080901 | 59 | 218 | 1.7 | 1.7 | 0.00 | 0.00 | 0.00 | 57 | 936.6 |
| 20260504080801 | 59 | 181 | 1.7 | 1.7 | 0.00 | 0.00 | 0.00 | 60 | 936.7 |
| 20260504080702 | 59 | 201 | 0.9 | 0.9 | 0.00 | 0.00 | 0.00 | 59 | 936.6 |
| 20260504080601 | 59 | 200 | 0.9 | 1.7 | 0.00 | 0.00 | 0.00 | 56 | 936.7 |
| 20260504080502 | 59 | 200 | 0.9 | 1.7 | 0.00 | 0.00 | 0.00 | 56 | 936.7 |
| 20260504080406 | 59 | 173 | 0.9 | 1.7 | 0.00 | 0.00 | 0.00 | 58 | 936.6 |
| 20260504080301 | 59 | 190 | 1.7 | 1.7 | 0.00 | 0.00 | 0.00 | 58 | 936.6 |
| 20260504080202 | 59 | 179 | 0.9 | 1.7 | 0.00 | 0.00 | 0.00 | 58 | 936.6 |
| 20260504070401 | 56 | 112 | 1.7 | 2.6 | 0.00 | 0.00 | 0.00 | 62 | 936.0 |
| 20260504070301 | 56 | 112 | 1.7 | 2.6 | 0.00 | 0.00 | 0.00 | 62 | 936.0 |
| 20260504070201 | 56 | 141 | 1.7 | 2.6 | 0.00 | 0.00 | 0.00 | 61 | 936.0 |
| 20260504070104 | 56 | 136 | 2.6 | 2.6 | 0.00 | 0.00 | 0.00 | 62 | 936.3 |
| 20260504060201 | 53 | 163 | 2.6 | 3.5 | 0.00 | 0.00 | 0.00 | 61 | 936.1 |
| 20260504050700 | 52 | 145 | 1.7 | 2.6 | 0.00 | 0.00 | 0.00 | 61 | 935.7 |
| 20260504050600 | 52 | 127 | 1.7 | 2.6 | 0.00 | 0.00 | 0.00 | 61 | 935.9 |
| 20260504050501 | 52 | 144 | 1.7 | 2.6 | 0.00 | 0.00 | 0.00 | 61 | 935.9 |
| 20260504050401 | 52 | 146 | 2.6 | 2.6 | 0.00 | 0.00 | 0.00 | 61 | 935.9 |
| 20260504050301 | 52 | 125 | 1.7 | 2.6 | 0.00 | 0.00 | 0.00 | 61 | 936.0 |
| 20260504050103 | 52 | 138 | 2.6 | 2.6 | 0.00 | 0.00 | 0.00 | 60 | 935.9 |
| 20260504050001 | 52 | 170 | 2.6 | 2.6 | 0.00 | 0.00 | 0.00 | 61 | 936.0 |
| 20260504045901 | 52 | 131 | 1.7 | 2.6 | 0.00 | 0.00 | 0.00 | 61 | 936.0 |
| 20260504045801 | 52 | 143 | 1.7 | 1.7 | 0.00 | 0.00 | 0.00 | 61 | 935.9 |
| 20260504045700 | 52 | 134 | 1.7 | 2.6 | 0.00 | 0.00 | 0.00 | 61 | 935.7 |
| 20260504045602 | 52 | 144 | 1.7 | 2.6 | 0.00 | 0.00 | 0.00 | 61 | 936.0 |
| 20260504045500 | 52 | 145 | 1.7 | 2.6 | 0.00 | 0.00 | 0.00 | 61 | 935.8 |
| 20260504045401 | 52 | 142 | 1.7 | 2.6 | 0.00 | 0.00 | 0.00 | 61 | 936.0 |
| 20260504045301 | 52 | 141 | 1.7 | 2.6 | 0.00 | 0.00 | 0.00 | 61 | 935.8 |
| 20260504045201 | 52 | 127 | 1.7 | 2.6 | 0.00 | 0.00 | 0.00 | 61 | 936.0 |
| 20260504045101 | 52 | 140 | 1.7 | 2.6 | 0.00 | 0.00 | 0.00 | 61 | 935.9 |
| 20260504045001 | 52 | 121 | 1.7 | 2.6 | 0.00 | 0.00 | 0.00 | 60 | 935.8 |
| 20260504044901 | 52 | 142 | 1.7 | 2.6 | 0.00 | 0.00 | 0.00 | 60 | 936.0 |
| 20260504044801 | 52 | 163 | 1.7 | 2.6 | 0.00 | 0.00 | 0.00 | 60 | 935.9 |
| 20260504044701 | 52 | 144 | 2.6 | 2.6 | 0.00 | 0.00 | 0.00 | 60 | 936.0 |
| 20260504044602 | 52 | 149 | 1.7 | 2.6 | 0.00 | 0.00 | 0.00 | 60 | 935.9 |
| 20260504044501 | 52 | 147 | 1.7 | 2.6 | 0.00 | 0.00 | 0.00 | 60 | 935.9 |
| 20260504044401 | 52 | 152 | 1.7 | 2.6 | 0.00 | 0.00 | 0.00 | 60 | 935.8 |
| 20260504044301 | 52 | 134 | 1.7 | 1.7 | 0.00 | 0.00 | 0.00 | 60 | 935.9 |
| 20260504044202 | 52 | 157 | 0.9 | 1.7 | 0.00 | 0.00 | 0.00 | 61 | 936.0 |
| 20260504044102 | 52 | 144 | 0.9 | 1.7 | 0.00 | 0.00 | 0.00 | 60 | 935.9 |
| 20260504044001 | 52 | 138 | 1.7 | 2.6 | 0.00 | 0.00 | 0.00 | 60 | 936.0 |
| 20260504043900 | 52 | 171 | 2.6 | 2.6 | 0.00 | 0.00 | 0.00 | 59 | 936.0 |
| 20260504043801 | 52 | 180 | 1.7 | 1.7 | 0.00 | 0.00 | 0.00 | 60 | 935.9 |
| 20260504043701 | 52 | 159 | 1.7 | 1.7 | 0.00 | 0.00 | 0.00 | 60 | 936.0 |
| 20260504043601 | 52 | 144 | 0.9 | 1.7 | 0.00 | 0.00 | 0.00 | 61 | 935.7 |
| 20260504043502 | 52 | 152 | 1.7 | 1.7 | 0.00 | 0.00 | 0.00 | 60 | 935.8 |
| 20260504043401 | 52 | 155 | 1.7 | 1.7 | 0.00 | 0.00 | 0.00 | 60 | 936.0 |
| 20260504043301 | 52 | 168 | 0.9 | 1.7 | 0.00 | 0.00 | 0.00 | 60 | 936.1 |
| 20260504043201 | 52 | 155 | 0.9 | 1.7 | 0.00 | 0.00 | 0.00 | 60 | 935.7 |
| 20260504043101 | 52 | 175 | 0.9 | 2.6 | 0.00 | 0.00 | 0.00 | 59 | 935.9 |
| 20260504043001 | 52 | 165 | 1.7 | 2.6 | 0.00 | 0.00 | 0.00 | 59 | 935.9 |
| 20260504042901 | 52 | 149 | 1.7 | 2.6 | 0.00 | 0.00 | 0.00 | 59 | 935.9 |
| 20260504042805 | 52 | 164 | 1.7 | 2.6 | 0.00 | 0.00 | 0.00 | 59 | 935.9 |
| 20260504042701 | 52 | 158 | 1.7 | 2.6 | 0.00 | 0.00 | 0.00 | 59 | 935.9 |
| 20260504042600 | 52 | 166 | 1.7 | 1.7 | 0.00 | 0.00 | 0.00 | 59 | 935.8 |
| 20260504042501 | 52 | 186 | 1.7 | 1.7 | 0.00 | 0.00 | 0.00 | 59 | 936.1 |
| 20260504042401 | 52 | 180 | 1.7 | 1.7 | 0.00 | 0.00 | 0.00 | 59 | 935.9 |
| 20260504042301 | 52 | 174 | 0.9 | 2.6 | 0.00 | 0.00 | 0.00 | 59 | 935.8 |
| 20260504042201 | 52 | 176 | 1.7 | 2.6 | 0.00 | 0.00 | 0.00 | 59 | 935.9 |
| 20260504042102 | 52 | 158 | 1.7 | 2.6 | 0.00 | 0.00 | 0.00 | 58 | 935.8 |
| 20260504042002 | 52 | 176 | 1.7 | 2.6 | 0.00 | 0.00 | 0.00 | 58 | 935.9 |
| 20260504041901 | 52 | 154 | 2.6 | 2.6 | 0.00 | 0.00 | 0.00 | 58 | 935.8 |
| 20260504041801 | 52 | 165 | 2.6 | 3.5 | 0.00 | 0.00 | 0.00 | 58 | 935.7 |
| 20260504041701 | 52 | 171 | 1.7 | 3.5 | 0.00 | 0.00 | 0.00 | 58 | 935.7 |
| 20260504041601 | 52 | 183 | 2.6 | 3.5 | 0.00 | 0.00 | 0.00 | 58 | 935.6 |
| 20260504041501 | 52 | 167 | 2.6 | 2.6 | 0.00 | 0.00 | 0.00 | 58 | 935.7 |
| 20260504041401 | 52 | 145 | 1.7 | 3.5 | 0.00 | 0.00 | 0.00 | 59 | 935.5 |
| 20260504041301 | 52 | 173 | 1.7 | 2.6 | 0.00 | 0.00 | 0.00 | 59 | 935.6 |
| 20260504041201 | 52 | 173 | 1.7 | 3.5 | 0.00 | 0.00 | 0.00 | 59 | 935.5 |
| 20260504041101 | 52 | 153 | 2.6 | 3.5 | 0.00 | 0.00 | 0.00 | 58 | 935.5 |
| 20260504041002 | 52 | 150 | 1.7 | 3.5 | 0.00 | 0.00 | 0.00 | 58 | 935.4 |
| 20260504040902 | 52 | 161 | 1.7 | 3.5 | 0.00 | 0.00 | 0.00 | 58 | 935.5 |
| 20260504040800 | 52 | 141 | 2.6 | 3.5 | 0.00 | 0.00 | 0.00 | 58 | 935.7 |
| 20260504040701 | 52 | 150 | 3.5 | 3.5 | 0.00 | 0.00 | 0.00 | 58 | 935.5 |
| 20260504040600 | 52 | 143 | 3.5 | 4.3 | 0.00 | 0.00 | 0.00 | 58 | 935.5 |
| 20260504040502 | 52 | 132 | 2.6 | 4.3 | 0.00 | 0.00 | 0.00 | 58 | 935.8 |
| 20260504040401 | 52 | 140 | 3.5 | 3.5 | 0.00 | 0.00 | 0.00 | 59 | 935.6 |
| 20260504040300 | 52 | 140 | 2.6 | 3.5 | 0.00 | 0.00 | 0.00 | 58 | 935.6 |
| 20260504040203 | 52 | 140 | 2.6 | 3.5 | 0.00 | 0.00 | 0.00 | 58 | 935.6 |
| 20260504040001 | 52 | 142 | 2.6 | 3.5 | 0.00 | 0.00 | 0.00 | 58 | 935.7 |
| 20260504035902 | 52 | 137 | 2.6 | 3.5 | 0.00 | 0.00 | 0.00 | 58 | 935.6 |
| 20260504035801 | 52 | 142 | 2.6 | 4.3 | 0.00 | 0.00 | 0.00 | 58 | 935.5 |
| 20260504035700 | 52 | 151 | 2.6 | 4.3 | 0.00 | 0.00 | 0.00 | 58 | 935.3 |
| 20260504035601 | 52 | 136 | 3.5 | 4.3 | 0.00 | 0.00 | 0.00 | 57 | 935.4 |
| 20260504035501 | 52 | 175 | 3.5 | 4.3 | 0.00 | 0.00 | 0.00 | 58 | 935.5 |
| 20260504035401 | 52 | 152 | 2.6 | 3.5 | 0.00 | 0.00 | 0.00 | 58 | 935.3 |
| 20260504035301 | 52 | 153 | 3.5 | 3.5 | 0.00 | 0.00 | 0.00 | 57 | 935.3 |
| 20260504035201 | 52 | 140 | 3.5 | 4.3 | 0.00 | 0.00 | 0.00 | 57 | 935.3 |
| 20260504035101 | 52 | 156 | 3.5 | 4.3 | 0.00 | 0.00 | 0.00 | 57 | 935.2 |
| 20260504035000 | 52 | 144 | 3.5 | 4.3 | 0.00 | 0.00 | 0.00 | 58 | 935.4 |
| 20260504034901 | 52 | 160 | 2.6 | 4.3 | 0.00 | 0.00 | 0.00 | 58 | 935.2 |
| 20260504034801 | 52 | 139 | 3.5 | 3.5 | 0.00 | 0.00 | 0.00 | 57 | 935.5 |
| 20260504034702 | 52 | 140 | 2.6 | 3.5 | 0.00 | 0.00 | 0.00 | 57 | 935.3 |
| 20260504034601 | 52 | 138 | 2.6 | 3.5 | 0.00 | 0.00 | 0.00 | 58 | 935.3 |
| 20260504034501 | 52 | 176 | 2.6 | 3.5 | 0.00 | 0.00 | 0.00 | 57 | 935.5 |
| 20260504034402 | 52 | 172 | 3.5 | 4.3 | 0.00 | 0.00 | 0.00 | 57 | 935.3 |
| 20260504034302 | 52 | 150 | 3.5 | 4.3 | 0.00 | 0.00 | 0.00 | 57 | 935.5 |
| 20260504034201 | 52 | 158 | 2.6 | 3.5 | 0.00 | 0.00 | 0.00 | 58 | 935.5 |
| 20260504034101 | 52 | 161 | 2.6 | 3.5 | 0.00 | 0.00 | 0.00 | 57 | 935.5 |
| 20260504034001 | 52 | 157 | 2.6 | 3.5 | 0.00 | 0.00 | 0.00 | 57 | 935.5 |
| 20260504033903 | 52 | 149 | 2.6 | 3.5 | 0.00 | 0.00 | 0.00 | 57 | 935.5 |
| 20260504033807 | 52 | 148 | 2.6 | 3.5 | 0.00 | 0.00 | 0.00 | 57 | 935.4 |
| 20260504033701 | 52 | 168 | 3.5 | 3.5 | 0.00 | 0.00 | 0.00 | 57 | 935.3 |
| 20260504033600 | 52 | 152 | 2.6 | 3.5 | 0.00 | 0.00 | 0.00 | 57 | 935.5 |
| 20260504033501 | 52 | 158 | 2.6 | 3.5 | 0.00 | 0.00 | 0.00 | 57 | 935.4 |
| 20260504033400 | 52 | 141 | 2.6 | 3.5 | 0.00 | 0.00 | 0.00 | 57 | 935.6 |
| 20260504033301 | 52 | 167 | 3.5 | 3.5 | 0.00 | 0.00 | 0.00 | 57 | 935.5 |
| 20260504033201 | 52 | 170 | 2.6 | 3.5 | 0.00 | 0.00 | 0.00 | 57 | 935.8 |
| 20260504033101 | 52 | 154 | 2.6 | 3.5 | 0.00 | 0.00 | 0.00 | 57 | 935.6 |
| 20260504033001 | 52 | 173 | 2.6 | 3.5 | 0.00 | 0.00 | 0.00 | 57 | 935.7 |
| 20260504032901 | 52 | 124 | 3.5 | 3.5 | 0.00 | 0.00 | 0.00 | 57 | 935.5 |
| 20260504032801 | 52 | 144 | 3.5 | 3.5 | 0.00 | 0.00 | 0.00 | 57 | 935.6 |
| 20260504032701 | 52 | 147 | 2.6 | 4.3 | 0.00 | 0.00 | 0.00 | 57 | 935.3 |
| 20260504032601 | 52 | 156 | 2.6 | 4.3 | 0.00 | 0.00 | 0.00 | 56 | 935.4 |
| 20260504032501 | 52 | 156 | 3.5 | 3.5 | 0.00 | 0.00 | 0.00 | 57 | 935.6 |
| 20260504032401 | 52 | 159 | 2.6 | 3.5 | 0.00 | 0.00 | 0.00 | 56 | 935.6 |
| 20260504032300 | 52 | 146 | 2.6 | 4.3 | 0.00 | 0.00 | 0.00 | 57 | 935.7 |
| 20260504032201 | 52 | 144 | 3.5 | 4.3 | 0.00 | 0.00 | 0.00 | 56 | 935.5 |
| 20260504032105 | 53 | 148 | 3.5 | 4.3 | 0.00 | 0.00 | 0.00 | 57 | 935.4 |
| 20260504032001 | 53 | 154 | 3.5 | 4.3 | 0.00 | 0.00 | 0.00 | 56 | 935.7 |
| 20260504031901 | 53 | 150 | 2.6 | 4.3 | 0.00 | 0.00 | 0.00 | 56 | 935.6 |
| 20260504031801 | 53 | 156 | 2.6 | 4.3 | 0.00 | 0.00 | 0.00 | 56 | 935.4 |
| 20260504031702 | 53 | 135 | 3.5 | 4.3 | 0.00 | 0.00 | 0.00 | 56 | 935.5 |
| 20260504031601 | 52 | 164 | 3.5 | 4.3 | 0.00 | 0.00 | 0.00 | 56 | 935.5 |
| 20260504031501 | 53 | 148 | 2.6 | 4.3 | 0.00 | 0.00 | 0.00 | 56 | 935.6 |
| 20260504031401 | 52 | 145 | 3.5 | 4.3 | 0.00 | 0.00 | 0.00 | 56 | 935.5 |
| 20260504031300 | 52 | 141 | 3.5 | 4.3 | 0.00 | 0.00 | 0.00 | 56 | 935.6 |
| 20260504031201 | 52 | 136 | 3.5 | 4.3 | 0.00 | 0.00 | 0.00 | 56 | 935.3 |
| 20260504031101 | 53 | 167 | 3.5 | 4.3 | 0.00 | 0.00 | 0.00 | 56 | 935.6 |
| 20260504031001 | 53 | 164 | 2.6 | 4.3 | 0.00 | 0.00 | 0.00 | 56 | 935.4 |
| 20260504030901 | 53 | 145 | 2.6 | 4.3 | 0.00 | 0.00 | 0.00 | 56 | 935.4 |
| 20260504030801 | 53 | 161 | 3.5 | 4.3 | 0.00 | 0.00 | 0.00 | 56 | 935.5 |
| 20260504030701 | 53 | 151 | 4.3 | 4.3 | 0.00 | 0.00 | 0.00 | 56 | 935.6 |
| 20260504030601 | 53 | 168 | 3.5 | 5.2 | 0.00 | 0.00 | 0.00 | 55 | 935.5 |
| 20260504030501 | 53 | 152 | 3.5 | 5.2 | 0.00 | 0.00 | 0.00 | 56 | 935.4 |
| 20260504030401 | 53 | 128 | 3.5 | 4.3 | 0.00 | 0.00 | 0.00 | 56 | 935.5 |
| 20260504030301 | 53 | 169 | 3.5 | 4.3 | 0.00 | 0.00 | 0.00 | 55 | 935.5 |
| 20260504030201 | 53 | 141 | 3.5 | 5.2 | 0.00 | 0.00 | 0.00 | 55 | 935.6 |
| 20260504030001 | 53 | 167 | 4.3 | 5.2 | 0.00 | 0.00 | 0.00 | 56 | 935.4 |
| 20260504025901 | 53 | 167 | 4.3 | 5.2 | 0.00 | 0.00 | 0.00 | 56 | 935.4 |
| 20260504025800 | 53 | 152 | 3.5 | 4.3 | 0.00 | 0.00 | 0.00 | 55 | 935.6 |
| 20260504025701 | 53 | 154 | 3.5 | 4.3 | 0.00 | 0.00 | 0.00 | 55 | 935.5 |
| 20260504025601 | 53 | 125 | 3.5 | 4.3 | 0.00 | 0.00 | 0.00 | 55 | 935.5 |
| 20260504025501 | 53 | 149 | 3.5 | 4.3 | 0.00 | 0.00 | 0.00 | 55 | 935.5 |
| 20260504025401 | 53 | 158 | 3.5 | 5.2 | 0.00 | 0.00 | 0.00 | 55 | 935.5 |
| 20260504025301 | 53 | 150 | 4.3 | 5.2 | 0.00 | 0.00 | 0.00 | 55 | 935.4 |
| 20260504025201 | 53 | 146 | 4.3 | 5.2 | 0.00 | 0.00 | 0.00 | 55 | 935.5 |
| 20260504025101 | 53 | 141 | 3.5 | 4.3 | 0.00 | 0.00 | 0.00 | 55 | 935.6 |
| 20260504025002 | 53 | 152 | 3.5 | 4.3 | 0.00 | 0.00 | 0.00 | 55 | 935.7 |
| 20260504024901 | 53 | 150 | 3.5 | 5.2 | 0.00 | 0.00 | 0.00 | 55 | 935.6 |
| 20260504024804 | 53 | 144 | 2.6 | 4.3 | 0.00 | 0.00 | 0.00 | 55 | 935.8 |
| 20260504024701 | 53 | 141 | 2.6 | 4.3 | 0.00 | 0.00 | 0.00 | 55 | 935.4 |
| 20260504024601 | 53 | 151 | 3.5 | 4.3 | 0.00 | 0.00 | 0.00 | 55 | 935.6 |
| 20260504024502 | 53 | 161 | 3.5 | 3.5 | 0.00 | 0.00 | 0.00 | 55 | 935.5 |
| 20260504024401 | 53 | 138 | 2.6 | 3.5 | 0.00 | 0.00 | 0.00 | 55 | 935.4 |
| 20260504024301 | 53 | 145 | 2.6 | 4.3 | 0.00 | 0.00 | 0.00 | 55 | 935.8 |
| 20260504024202 | 53 | 154 | 3.5 | 4.3 | 0.00 | 0.00 | 0.00 | 55 | 935.8 |
| 20260504024102 | 53 | 175 | 4.3 | 4.3 | 0.00 | 0.00 | 0.00 | 55 | 935.6 |
| 20260504024001 | 53 | 159 | 2.6 | 4.3 | 0.00 | 0.00 | 0.00 | 54 | 935.7 |
| 20260504023902 | 53 | 157 | 3.5 | 4.3 | 0.00 | 0.00 | 0.00 | 54 | 935.4 |
| 20260504023801 | 53 | 149 | 3.5 | 4.3 | 0.00 | 0.00 | 0.00 | 55 | 935.7 |
| 20260504023701 | 53 | 167 | 3.5 | 4.3 | 0.00 | 0.00 | 0.00 | 55 | 935.5 |
| 20260504023602 | 53 | 154 | 3.5 | 4.3 | 0.00 | 0.00 | 0.00 | 55 | 935.5 |
| 20260504023501 | 53 | 145 | 3.5 | 4.3 | 0.00 | 0.00 | 0.00 | 55 | 935.6 |
| 20260504023401 | 53 | 140 | 3.5 | 3.5 | 0.00 | 0.00 | 0.00 | 55 | 935.6 |
| 20260504023302 | 53 | 161 | 3.5 | 3.5 | 0.00 | 0.00 | 0.00 | 55 | 935.6 |
| 20260504023201 | 53 | 153 | 2.6 | 3.5 | 0.00 | 0.00 | 0.00 | 55 | 935.6 |
| 20260504023101 | 54 | 159 | 3.5 | 3.5 | 0.00 | 0.00 | 0.00 | 54 | 935.6 |
| 20260504023001 | 54 | 163 | 2.6 | 4.3 | 0.00 | 0.00 | 0.00 | 54 | 935.5 |
| 20260504022901 | 54 | 150 | 3.5 | 4.3 | 0.00 | 0.00 | 0.00 | 54 | 935.7 |
| 20260504022801 | 54 | 154 | 3.5 | 4.3 | 0.00 | 0.00 | 0.00 | 54 | 935.6 |
| 20260504022700 | 54 | 159 | 3.5 | 4.3 | 0.00 | 0.00 | 0.00 | 54 | 935.7 |
| 20260504022601 | 53 | 148 | 3.5 | 4.3 | 0.00 | 0.00 | 0.00 | 54 | 935.7 |
| 20260504022501 | 53 | 164 | 3.5 | 4.3 | 0.00 | 0.00 | 0.00 | 54 | 935.5 |
| 20260504022401 | 53 | 150 | 3.5 | 4.3 | 0.00 | 0.00 | 0.00 | 55 | 935.6 |
| 20260504022301 | 54 | 165 | 2.6 | 3.5 | 0.00 | 0.00 | 0.00 | 54 | 935.7 |
| 20260504022202 | 54 | 129 | 3.5 | 4.3 | 0.00 | 0.00 | 0.00 | 54 | 935.6 |
| 20260504022101 | 54 | 145 | 3.5 | 4.3 | 0.00 | 0.00 | 0.00 | 54 | 935.5 |
| 20260504022000 | 54 | 152 | 3.5 | 4.3 | 0.00 | 0.00 | 0.00 | 54 | 935.7 |
| 20260504021901 | 54 | 156 | 3.5 | 4.3 | 0.00 | 0.00 | 0.00 | 54 | 935.7 |
| 20260504021801 | 54 | 144 | 2.6 | 3.5 | 0.00 | 0.00 | 0.00 | 54 | 935.5 |
| 20260504021701 | 54 | 187 | 2.6 | 4.3 | 0.00 | 0.00 | 0.00 | 54 | 935.6 |
| 20260504021602 | 54 | 155 | 3.5 | 4.3 | 0.00 | 0.00 | 0.00 | 54 | 935.5 |
| 20260504021500 | 54 | 138 | 3.5 | 4.3 | 0.00 | 0.00 | 0.00 | 54 | 935.6 |
| 20260504021401 | 54 | 138 | 3.5 | 4.3 | 0.00 | 0.00 | 0.00 | 54 | 935.5 |
| 20260504021301 | 54 | 148 | 3.5 | 4.3 | 0.00 | 0.00 | 0.00 | 54 | 935.7 |
| 20260504021201 | 54 | 143 | 3.5 | 4.3 | 0.00 | 0.00 | 0.00 | 54 | 935.7 |
| 20260504021101 | 54 | 161 | 2.6 | 4.3 | 0.00 | 0.00 | 0.00 | 54 | 935.4 |
| 20260504021001 | 54 | 154 | 3.5 | 4.3 | 0.00 | 0.00 | 0.00 | 53 | 935.8 |
| 20260504020901 | 54 | 129 | 3.5 | 4.3 | 0.00 | 0.00 | 0.00 | 54 | 935.5 |
| 20260504020801 | 54 | 132 | 3.5 | 4.3 | 0.00 | 0.00 | 0.00 | 54 | 935.4 |
| 20260504020700 | 54 | 120 | 3.5 | 3.5 | 0.00 | 0.00 | 0.00 | 53 | 935.5 |
| 20260504020601 | 54 | 145 | 2.6 | 5.2 | 0.00 | 0.00 | 0.00 | 53 | 935.8 |
| 20260504020501 | 54 | 163 | 4.3 | 5.2 | 0.00 | 0.00 | 0.00 | 53 | 935.6 |
| 20260504020401 | 54 | 150 | 4.3 | 5.2 | 0.00 | 0.00 | 0.00 | 53 | 935.5 |
| 20260504020301 | 54 | 143 | 3.5 | 4.3 | 0.00 | 0.00 | 0.00 | 53 | 935.7 |
| 20260504020201 | 54 | 142 | 3.5 | 5.2 | 0.00 | 0.00 | 0.00 | 53 | 935.7 |
| 20260504020001 | 54 | 147 | 2.6 | 4.3 | 0.00 | 0.00 | 0.00 | 54 | 935.7 |
| 20260504015901 | 54 | 148 | 2.6 | 3.5 | 0.00 | 0.00 | 0.00 | 54 | 935.8 |
| 20260504015801 | 54 | 148 | 2.6 | 3.5 | 0.00 | 0.00 | 0.00 | 54 | 935.8 |
| 20260504015701 | 54 | 146 | 2.6 | 3.5 | 0.00 | 0.00 | 0.00 | 54 | 935.7 |
| 20260504015600 | 54 | 143 | 3.5 | 3.5 | 0.00 | 0.00 | 0.00 | 53 | 935.6 |
| 20260504015501 | 54 | 132 | 2.6 | 4.3 | 0.00 | 0.00 | 0.00 | 53 | 935.7 |
| 20260504015401 | 54 | 152 | 2.6 | 3.5 | 0.00 | 0.00 | 0.00 | 54 | 935.8 |
| 20260504015301 | 54 | 120 | 2.6 | 2.6 | 0.00 | 0.00 | 0.00 | 54 | 935.7 |
| 20260504015201 | 54 | 151 | 2.6 | 2.6 | 0.00 | 0.00 | 0.00 | 53 | 935.9 |
| 20260504015101 | 54 | 167 | 2.6 | 3.5 | 0.00 | 0.00 | 0.00 | 53 | 935.9 |
| 20260504015001 | 54 | 148 | 2.6 | 3.5 | 0.00 | 0.00 | 0.00 | 53 | 935.9 |
| 20260504014901 | 54 | 154 | 2.6 | 3.5 | 0.00 | 0.00 | 0.00 | 53 | 935.7 |
| 20260504014801 | 54 | 132 | 2.6 | 3.5 | 0.00 | 0.00 | 0.00 | 53 | 935.8 |
| 20260504014701 | 54 | 160 | 2.6 | 3.5 | 0.00 | 0.00 | 0.00 | 53 | 935.8 |
| 20260504014600 | 54 | 150 | 3.5 | 3.5 | 0.00 | 0.00 | 0.00 | 53 | 935.8 |
| 20260504014501 | 54 | 147 | 2.6 | 3.5 | 0.00 | 0.00 | 0.00 | 53 | 935.6 |
| 20260504014401 | 54 | 134 | 2.6 | 3.5 | 0.00 | 0.00 | 0.00 | 53 | 935.8 |
| 20260504014300 | 54 | 153 | 2.6 | 3.5 | 0.00 | 0.00 | 0.00 | 53 | 935.5 |
| 20260504014201 | 54 | 139 | 2.6 | 3.5 | 0.00 | 0.00 | 0.00 | 53 | 935.8 |
| 20260504014100 | 54 | 170 | 3.5 | 4.3 | 0.00 | 0.00 | 0.00 | 53 | 935.8 |
| 20260504014002 | 54 | 116 | 3.5 | 4.3 | 0.00 | 0.00 | 0.00 | 53 | 935.7 |
| 20260504013902 | 54 | 149 | 3.5 | 4.3 | 0.00 | 0.00 | 0.00 | 53 | 935.8 |
| 20260504013801 | 54 | 156 | 2.6 | 3.5 | 0.00 | 0.00 | 0.00 | 52 | 935.5 |
| 20260504013702 | 54 | 138 | 2.6 | 4.3 | 0.00 | 0.00 | 0.00 | 52 | 935.7 |
| 20260504013601 | 54 | 132 | 2.6 | 4.3 | 0.00 | 0.00 | 0.00 | 53 | 935.8 |
| 20260504013501 | 54 | 154 | 3.5 | 4.3 | 0.00 | 0.00 | 0.00 | 53 | 935.8 |
| 20260504013401 | 54 | 158 | 3.5 | 3.5 | 0.00 | 0.00 | 0.00 | 52 | 935.8 |
| 20260504013301 | 54 | 138 | 2.6 | 3.5 | 0.00 | 0.00 | 0.00 | 52 | 935.7 |
| 20260504013201 | 54 | 145 | 2.6 | 4.3 | 0.00 | 0.00 | 0.00 | 52 | 935.7 |
| 20260504013101 | 54 | 148 | 3.5 | 4.3 | 0.00 | 0.00 | 0.00 | 53 | 935.8 |
| 20260504013001 | 54 | 147 | 2.6 | 3.5 | 0.00 | 0.00 | 0.00 | 53 | 935.7 |
| 20260504012901 | 54 | 139 | 2.6 | 3.5 | 0.00 | 0.00 | 0.00 | 53 | 935.7 |
| 20260504012801 | 54 | 155 | 2.6 | 3.5 | 0.00 | 0.00 | 0.00 | 53 | 935.7 |
| 20260504012701 | 54 | 114 | 2.6 | 3.5 | 0.00 | 0.00 | 0.00 | 52 | 935.8 |
| 20260504012601 | 54 | 110 | 2.6 | 3.5 | 0.00 | 0.00 | 0.00 | 53 | 935.7 |
| 20260504012501 | 54 | 130 | 3.5 | 4.3 | 0.00 | 0.00 | 0.00 | 52 | 935.9 |
| 20260504012401 | 54 | 154 | 3.5 | 4.3 | 0.00 | 0.00 | 0.00 | 52 | 935.7 |
| 20260504012301 | 54 | 139 | 2.6 | 4.3 | 0.00 | 0.00 | 0.00 | 52 | 935.8 |
| 20260504012201 | 55 | 146 | 3.5 | 4.3 | 0.00 | 0.00 | 0.00 | 52 | 935.7 |
| 20260504012101 | 55 | 152 | 2.6 | 3.5 | 0.00 | 0.00 | 0.00 | 52 | 935.8 |
| 20260504012001 | 55 | 147 | 2.6 | 4.3 | 0.00 | 0.00 | 0.00 | 52 | 935.7 |
| 20260504011901 | 54 | 139 | 3.5 | 4.3 | 0.00 | 0.00 | 0.00 | 52 | 935.8 |
| 20260504011801 | 54 | 149 | 3.5 | 3.5 | 0.00 | 0.00 | 0.00 | 52 | 935.6 |
| 20260504011701 | 55 | 141 | 2.6 | 3.5 | 0.00 | 0.00 | 0.00 | 52 | 935.7 |
| 20260504011601 | 55 | 158 | 2.6 | 4.3 | 0.00 | 0.00 | 0.00 | 52 | 935.8 |
| 20260504011501 | 55 | 136 | 3.5 | 4.3 | 0.00 | 0.00 | 0.00 | 52 | 935.8 |
| 20260504011401 | 55 | 144 | 2.6 | 3.5 | 0.00 | 0.00 | 0.00 | 52 | 935.7 |
| 20260504011301 | 55 | 142 | 2.6 | 4.3 | 0.00 | 0.00 | 0.00 | 52 | 935.6 |
| 20260504011201 | 55 | 126 | 3.5 | 4.3 | 0.00 | 0.00 | 0.00 | 52 | 935.6 |
| 20260504011101 | 55 | 125 | 3.5 | 4.3 | 0.00 | 0.00 | 0.00 | 52 | 935.8 |
| 20260504011001 | 55 | 152 | 2.6 | 4.3 | 0.00 | 0.00 | 0.00 | 52 | 935.8 |
| 20260504010901 | 55 | 138 | 3.5 | 4.3 | 0.00 | 0.00 | 0.00 | 51 | 935.7 |
| 20260504010802 | 55 | 150 | 2.6 | 3.5 | 0.00 | 0.00 | 0.00 | 51 | 935.7 |
| 20260504010702 | 55 | 127 | 2.6 | 5.2 | 0.00 | 0.00 | 0.00 | 51 | 935.7 |
| 20260504010601 | 55 | 175 | 3.5 | 5.2 | 0.00 | 0.00 | 0.00 | 52 | 935.6 |
| 20260504010501 | 55 | 145 | 2.6 | 3.5 | 0.00 | 0.00 | 0.00 | 51 | 935.8 |
| 20260504010401 | 55 | 136 | 2.6 | 5.2 | 0.00 | 0.00 | 0.00 | 51 | 935.9 |
| 20260504010301 | 55 | 132 | 2.6 | 5.2 | 0.00 | 0.00 | 0.00 | 52 | 935.7 |
| 20260504010200 | 55 | 125 | 2.6 | 4.3 | 0.00 | 0.00 | 0.00 | 52 | 935.8 |
| 20260504010101 | 55 | 155 | 2.6 | 4.3 | 0.00 | 0.00 | 0.00 | 51 | 935.8 |
| 20260504010001 | 55 | 146 | 1.7 | 2.6 | 0.00 | 0.00 | 0.00 | 51 | 935.7 |
| 20260504005901 | 55 | 144 | 2.6 | 5.2 | 0.00 | 0.00 | 0.00 | 51 | 935.7 |
| 20260504005800 | 55 | 138 | 4.3 | 5.2 | 0.00 | 0.00 | 0.00 | 51 | 935.6 |
| 20260504005701 | 55 | 138 | 4.3 | 5.2 | 0.00 | 0.00 | 0.00 | 51 | 935.6 |
| 20260504005601 | 55 | 151 | 2.6 | 3.5 | 0.00 | 0.00 | 0.00 | 51 | 935.6 |
| 20260504005501 | 55 | 140 | 2.6 | 3.5 | 0.00 | 0.00 | 0.00 | 51 | 935.8 |
| 20260504005401 | 55 | 131 | 2.6 | 4.3 | 0.00 | 0.00 | 0.00 | 51 | 935.7 |
| 20260504005302 | 55 | 140 | 2.6 | 4.3 | 0.00 | 0.00 | 0.00 | 51 | 935.6 |
| 20260504005201 | 55 | 154 | 3.5 | 4.3 | 0.00 | 0.00 | 0.00 | 51 | 935.7 |
| 20260504005101 | 55 | 132 | 2.6 | 3.5 | 0.00 | 0.00 | 0.00 | 51 | 935.8 |
| 20260504005000 | 55 | 138 | 2.6 | 4.3 | 0.00 | 0.00 | 0.00 | 51 | 935.8 |
| 20260504004901 | 55 | 142 | 4.3 | 4.3 | 0.00 | 0.00 | 0.00 | 51 | 935.6 |
| 20260504004801 | 55 | 140 | 2.6 | 3.5 | 0.00 | 0.00 | 0.00 | 51 | 935.8 |
| 20260504004701 | 55 | 139 | 3.5 | 3.5 | 0.00 | 0.00 | 0.00 | 51 | 935.8 |
| 20260504004602 | 55 | 142 | 1.7 | 3.5 | 0.00 | 0.00 | 0.00 | 51 | 935.9 |
| 20260504004500 | 55 | 145 | 2.6 | 3.5 | 0.00 | 0.00 | 0.00 | 51 | 935.9 |
| 20260504004401 | 55 | 123 | 2.6 | 3.5 | 0.00 | 0.00 | 0.00 | 51 | 936.1 |
| 20260504004301 | 55 | 176 | 2.6 | 3.5 | 0.00 | 0.00 | 0.00 | 51 | 935.6 |
| 20260504004200 | 55 | 168 | 3.5 | 3.5 | 0.00 | 0.00 | 0.00 | 50 | 935.9 |
| 20260504004101 | 55 | 118 | 2.6 | 5.2 | 0.00 | 0.00 | 0.00 | 50 | 935.9 |
| 20260504004001 | 55 | 152 | 4.3 | 5.2 | 0.00 | 0.00 | 0.00 | 51 | 935.8 |
| 20260504003901 | 56 | 131 | 2.6 | 3.5 | 0.00 | 0.00 | 0.00 | 50 | 935.7 |
| 20260504003801 | 56 | 136 | 2.6 | 3.5 | 0.00 | 0.00 | 0.00 | 50 | 935.8 |
| 20260504003701 | 55 | 124 | 2.6 | 5.2 | 0.00 | 0.00 | 0.00 | 50 | 935.8 |
| 20260504003601 | 55 | 143 | 4.3 | 5.2 | 0.00 | 0.00 | 0.00 | 50 | 935.9 |
| 20260504003502 | 55 | 128 | 3.5 | 4.3 | 0.00 | 0.00 | 0.00 | 50 | 935.8 |
| 20260504003401 | 55 | 129 | 2.6 | 4.3 | 0.00 | 0.00 | 0.00 | 50 | 935.7 |
| 20260504003301 | 55 | 151 | 3.5 | 4.3 | 0.00 | 0.00 | 0.00 | 51 | 935.7 |
| 20260504003201 | 56 | 138 | 2.6 | 3.5 | 0.00 | 0.00 | 0.00 | 51 | 935.8 |
| 20260504003101 | 56 | 169 | 2.6 | 4.3 | 0.00 | 0.00 | 0.00 | 50 | 935.9 |
| 20260504003001 | 56 | 165 | 2.6 | 4.3 | 0.00 | 0.00 | 0.00 | 50 | 935.6 |
| 20260504002901 | 56 | 139 | 2.6 | 3.5 | 0.00 | 0.00 | 0.00 | 50 | 935.8 |
| 20260504002801 | 56 | 164 | 2.6 | 3.5 | 0.00 | 0.00 | 0.00 | 50 | 936.0 |
| 20260504002701 | 56 | 182 | 2.6 | 3.5 | 0.00 | 0.00 | 0.00 | 50 | 935.8 |
| 20260504002601 | 56 | 143 | 3.5 | 3.5 | 0.00 | 0.00 | 0.00 | 50 | 935.7 |
| 20260504002501 | 56 | 149 | 2.6 | 4.3 | 0.00 | 0.00 | 0.00 | 50 | 935.9 |
| 20260504002401 | 56 | 146 | 3.5 | 4.3 | 0.00 | 0.00 | 0.00 | 50 | 935.9 |
| 20260504002301 | 56 | 155 | 2.6 | 4.3 | 0.00 | 0.00 | 0.00 | 50 | 936.0 |
| 20260504002201 | 56 | 141 | 2.6 | 4.3 | 0.00 | 0.00 | 0.00 | 50 | 935.7 |
| 20260504002101 | 56 | 146 | 3.5 | 4.3 | 0.00 | 0.00 | 0.00 | 50 | 935.8 |
| 20260504002001 | 56 | 182 | 2.6 | 3.5 | 0.00 | 0.00 | 0.00 | 50 | 935.7 |
| 20260504001901 | 56 | 170 | 3.5 | 4.3 | 0.00 | 0.00 | 0.00 | 49 | 935.9 |
| 20260504001801 | 56 | 155 | 2.6 | 5.2 | 0.00 | 0.00 | 0.00 | 49 | 935.7 |
| 20260504001701 | 56 | 170 | 4.3 | 5.2 | 0.00 | 0.00 | 0.00 | 49 | 935.8 |
| 20260504001601 | 56 | 139 | 3.5 | 4.3 | 0.00 | 0.00 | 0.00 | 49 | 935.9 |
| 20260504001501 | 56 | 180 | 3.5 | 4.3 | 0.00 | 0.00 | 0.00 | 49 | 935.8 |
| 20260504001401 | 56 | 188 | 3.5 | 4.3 | 0.00 | 0.00 | 0.00 | 49 | 935.9 |
| 20260504001302 | 56 | 124 | 2.6 | 4.3 | 0.00 | 0.00 | 0.00 | 49 | 935.6 |
| 20260504001201 | 56 | 153 | 2.6 | 3.5 | 0.00 | 0.00 | 0.00 | 49 | 935.7 |
| 20260504001101 | 56 | 174 | 3.5 | 4.3 | 0.00 | 0.00 | 0.00 | 49 | 935.9 |
| 20260504001001 | 56 | 150 | 3.5 | 4.3 | 0.00 | 0.00 | 0.00 | 49 | 935.7 |
| 20260504000900 | 56 | 137 | 2.6 | 5.2 | 0.00 | 0.00 | 0.00 | 49 | 935.7 |
| 20260504000801 | 56 | 160 | 3.5 | 6.1 | 0.00 | 0.00 | 0.00 | 49 | 935.5 |
| 20260504000701 | 56 | 160 | 5.2 | 6.1 | 0.00 | 0.00 | 0.00 | 48 | 935.7 |
| 20260504000601 | 56 | 147 | 3.5 | 5.2 | 0.00 | 0.00 | 0.00 | 49 | 936.0 |
| 20260504000501 | 56 | 148 | 3.5 | 5.2 | 0.00 | 0.00 | 0.00 | 49 | 935.8 |
| 20260504000401 | 56 | 170 | 3.5 | 4.3 | 0.00 | 0.00 | 0.00 | 48 | 935.8 |
| 20260504000301 | 56 | 177 | 3.5 | 5.2 | 0.00 | 0.00 | 0.00 | 48 | 935.8 |
| 20260504000201 | 56 | 121 | 3.5 | 5.2 | 0.00 | 0.00 | 0.00 | 49 | 935.8 |
| 20260504000101 | 56 | 161 | 3.5 | 4.3 | 0.00 | 0.00 | 0.00 | 48 | 935.8 |
| 20260504000002 | 56 | 164 | 3.5 | 5.2 | 0.00 | 0.00 | 0.00 | 48 | 935.8 |
| 20260503235901 | 56 | 163 | 3.5 | 5.2 | 0.00 | 0.00 | 0.00 | 48 | 935.7 |
| 20260503235801 | 56 | 144 | 3.5 | 7.0 | 0.00 | 0.00 | 0.00 | 48 | 935.8 |
| 20260503235700 | 56 | 150 | 3.5 | 7.0 | 0.00 | 0.00 | 0.00 | 48 | 935.9 |
| 20260503235601 | 56 | 150 | 3.5 | 7.0 | 0.00 | 0.00 | 0.00 | 48 | 935.9 |
| 20260503235500 | 56 | 175 | 4.3 | 5.2 | 0.00 | 0.00 | 0.00 | 49 | 935.7 |
| 20260503235401 | 56 | 154 | 3.5 | 5.2 | 0.00 | 0.00 | 0.00 | 48 | 935.8 |
| 20260503235301 | 56 | 156 | 3.5 | 4.3 | 0.00 | 0.00 | 0.00 | 48 | 935.9 |
| 20260503235202 | 56 | 163 | 3.5 | 4.3 | 0.00 | 0.00 | 0.00 | 48 | 935.9 |
| 20260503235106 | 56 | 171 | 4.3 | 7.0 | 0.00 | 0.00 | 0.00 | 48 | 935.8 |
| 20260503235001 | 56 | 155 | 3.5 | 7.0 | 0.00 | 0.00 | 0.00 | 48 | 935.8 |
| 20260503234901 | 56 | 141 | 2.6 | 5.2 | 0.00 | 0.00 | 0.00 | 48 | 936.0 |
| 20260503234801 | 56 | 178 | 5.2 | 5.2 | 0.00 | 0.00 | 0.00 | 48 | 936.0 |
| 20260503234701 | 56 | 177 | 3.5 | 5.2 | 0.00 | 0.00 | 0.00 | 48 | 935.9 |
| 20260503234601 | 56 | 162 | 4.3 | 5.2 | 0.00 | 0.00 | 0.00 | 48 | 935.8 |
| 20260503234501 | 57 | 150 | 2.6 | 5.2 | 0.00 | 0.00 | 0.00 | 48 | 936.1 |
| 20260503234400 | 57 | 171 | 3.5 | 3.5 | 0.00 | 0.00 | 0.00 | 48 | 936.1 |
| 20260503234300 | 57 | 137 | 2.6 | 5.2 | 0.00 | 0.00 | 0.00 | 48 | 936.0 |
| 20260503234201 | 57 | 186 | 3.5 | 6.1 | 0.00 | 0.00 | 0.00 | 48 | 936.0 |
| 20260503234101 | 57 | 148 | 2.6 | 5.2 | 0.00 | 0.00 | 0.00 | 48 | 936.0 |
| 20260503234001 | 57 | 178 | 4.3 | 5.2 | 0.00 | 0.00 | 0.00 | 48 | 936.0 |
| 20260503233901 | 57 | 148 | 4.3 | 5.2 | 0.00 | 0.00 | 0.00 | 48 | 936.0 |
| 20260503233800 | 57 | 187 | 3.5 | 5.2 | 0.00 | 0.00 | 0.00 | 48 | 935.8 |
| 20260503233701 | 57 | 181 | 3.5 | 5.2 | 0.00 | 0.00 | 0.00 | 48 | 936.1 |
| 20260503233600 | 57 | 163 | 4.3 | 5.2 | 0.00 | 0.00 | 0.00 | 48 | 936.1 |
| 20260503233501 | 57 | 138 | 3.5 | 5.2 | 0.00 | 0.00 | 0.00 | 48 | 936.0 |
| 20260503233400 | 57 | 172 | 3.5 | 5.2 | 0.00 | 0.00 | 0.00 | 48 | 935.9 |
| 20260503233301 | 57 | 145 | 2.6 | 5.2 | 0.00 | 0.00 | 0.00 | 48 | 935.9 |
| 20260503233200 | 57 | 164 | 3.5 | 5.2 | 0.00 | 0.00 | 0.00 | 48 | 936.0 |
| 20260503233102 | 57 | 159 | 3.5 | 5.2 | 0.00 | 0.00 | 0.00 | 48 | 935.9 |
| 20260503233001 | 57 | 156 | 4.3 | 6.1 | 0.00 | 0.00 | 0.00 | 48 | 936.0 |
| 20260503232900 | 57 | 183 | 4.3 | 6.1 | 0.00 | 0.00 | 0.00 | 48 | 936.0 |
| 20260503232801 | 57 | 185 | 2.6 | 4.3 | 0.00 | 0.00 | 0.00 | 48 | 936.0 |
| 20260503232701 | 57 | 159 | 4.3 | 5.2 | 0.00 | 0.00 | 0.00 | 48 | 936.0 |
| 20260503232601 | 57 | 143 | 4.3 | 5.2 | 0.00 | 0.00 | 0.00 | 48 | 935.9 |
| 20260503232501 | 57 | 156 | 3.5 | 5.2 | 0.00 | 0.00 | 0.00 | 48 | 936.0 |
| 20260503232405 | 57 | 166 | 3.5 | 4.3 | 0.00 | 0.00 | 0.00 | 48 | 935.9 |
| 20260503232301 | 57 | 156 | 3.5 | 4.3 | 0.00 | 0.00 | 0.00 | 48 | 936.0 |
| 20260503232201 | 57 | 165 | 3.5 | 6.1 | 0.00 | 0.00 | 0.00 | 48 | 936.2 |
| 20260503232101 | 57 | 157 | 3.5 | 7.0 | 0.00 | 0.00 | 0.00 | 48 | 935.9 |
| 20260503232001 | 57 | 165 | 2.6 | 4.3 | 0.00 | 0.00 | 0.00 | 48 | 935.9 |
| 20260503231901 | 57 | 131 | 3.5 | 5.2 | 0.00 | 0.00 | 0.00 | 48 | 935.9 |
| 20260503231801 | 57 | 179 | 4.3 | 5.2 | 0.00 | 0.00 | 0.00 | 48 | 935.9 |
| 20260503231701 | 57 | 174 | 3.5 | 6.1 | 0.00 | 0.00 | 0.00 | 48 | 935.9 |
| 20260503231600 | 57 | 142 | 4.3 | 5.2 | 0.00 | 0.00 | 0.00 | 48 | 935.8 |
| 20260503231500 | 57 | 166 | 4.3 | 4.3 | 0.00 | 0.00 | 0.00 | 48 | 936.1 |
| 20260503231400 | 57 | 187 | 3.5 | 5.2 | 0.00 | 0.00 | 0.00 | 48 | 936.0 |
| 20260503231300 | 57 | 129 | 3.5 | 6.1 | 0.00 | 0.00 | 0.00 | 48 | 936.0 |
| 20260503231201 | 57 | 161 | 4.3 | 5.2 | 0.00 | 0.00 | 0.00 | 48 | 936.0 |
| 20260503231101 | 57 | 180 | 3.5 | 6.1 | 0.00 | 0.00 | 0.00 | 48 | 935.8 |
| 20260503231007 | 57 | 169 | 4.3 | 6.1 | 0.00 | 0.00 | 0.00 | 48 | 935.9 |
| 20260503230901 | 57 | 179 | 2.6 | 6.1 | 0.00 | 0.00 | 0.00 | 48 | 935.9 |
| 20260503230801 | 57 | 165 | 4.3 | 5.2 | 0.00 | 0.00 | 0.00 | 48 | 936.1 |
| 20260503230701 | 57 | 175 | 2.6 | 4.3 | 0.00 | 0.00 | 0.00 | 48 | 935.9 |
| 20260503230601 | 57 | 160 | 3.5 | 6.1 | 0.00 | 0.00 | 0.00 | 48 | 935.8 |
| 20260503230501 | 57 | 164 | 4.3 | 7.0 | 0.00 | 0.00 | 0.00 | 48 | 936.1 |
| 20260503230401 | 57 | 126 | 6.1 | 7.0 | 0.00 | 0.00 | 0.00 | 48 | 936.0 |
| 20260503230301 | 57 | 160 | 3.5 | 5.2 | 0.00 | 0.00 | 0.00 | 48 | 935.8 |
| 20260503230201 | 58 | 185 | 3.5 | 6.1 | 0.00 | 0.00 | 0.00 | 48 | 936.1 |
| 20260503230001 | 57 | 172 | 3.5 | 6.1 | 0.00 | 0.00 | 0.00 | 48 | 935.7 |
| 20260503225901 | 58 | 165 | 4.3 | 5.2 | 0.00 | 0.00 | 0.00 | 48 | 936.3 |
| 20260503225801 | 58 | 152 | 4.3 | 5.2 | 0.00 | 0.00 | 0.00 | 48 | 935.9 |
| 20260503225701 | 58 | 167 | 4.3 | 6.1 | 0.00 | 0.00 | 0.00 | 48 | 936.0 |
| 20260503225601 | 58 | 130 | 4.3 | 7.0 | 0.00 | 0.00 | 0.00 | 47 | 936.0 |
| 20260503225501 | 58 | 130 | 4.3 | 7.0 | 0.00 | 0.00 | 0.00 | 47 | 936.0 |
| 20260503225401 | 58 | 150 | 4.3 | 7.0 | 0.00 | 0.00 | 0.00 | 47 | 935.9 |
| 20260503225302 | 58 | 141 | 5.2 | 7.0 | 0.00 | 0.00 | 0.00 | 47 | 936.0 |
| 20260503225202 | 58 | 168 | 4.3 | 6.1 | 0.00 | 0.00 | 0.00 | 47 | 935.8 |
| 20260503225101 | 58 | 154 | 4.3 | 5.2 | 0.00 | 0.00 | 0.00 | 47 | 935.7 |
| 20260503225001 | 58 | 146 | 2.6 | 6.1 | 0.00 | 0.00 | 0.00 | 48 | 935.9 |
| 20260503224901 | 58 | 148 | 3.5 | 6.1 | 0.00 | 0.00 | 0.00 | 48 | 935.9 |
| 20260503224802 | 58 | 156 | 4.3 | 6.1 | 0.00 | 0.00 | 0.00 | 48 | 936.0 |
| 20260503224701 | 58 | 171 | 3.5 | 5.2 | 0.00 | 0.00 | 0.00 | 48 | 936.0 |
| 20260503224601 | 58 | 137 | 3.5 | 7.0 | 0.00 | 0.00 | 0.00 | 47 | 935.8 |
| 20260503224501 | 58 | 173 | 4.3 | 7.0 | 0.00 | 0.00 | 0.00 | 47 | 936.0 |
| 20260503224401 | 58 | 171 | 3.5 | 6.1 | 0.00 | 0.00 | 0.00 | 48 | 935.9 |
| 20260503224301 | 58 | 145 | 4.3 | 6.1 | 0.00 | 0.00 | 0.00 | 48 | 935.9 |
| 20260503224201 | 58 | 152 | 3.5 | 5.2 | 0.00 | 0.00 | 0.00 | 47 | 936.0 |
| 20260503224101 | 58 | 182 | 4.3 | 7.0 | 0.00 | 0.00 | 0.00 | 47 | 935.9 |
| 20260503224001 | 58 | 187 | 5.2 | 7.0 | 0.00 | 0.00 | 0.00 | 47 | 935.9 |
| 20260503223901 | 58 | 146 | 5.2 | 6.1 | 0.00 | 0.00 | 0.00 | 47 | 935.9 |
| 20260503223800 | 58 | 177 | 4.3 | 7.0 | 0.00 | 0.00 | 0.00 | 47 | 935.7 |
| 20260503223702 | 58 | 156 | 4.3 | 7.0 | 0.00 | 0.00 | 0.00 | 47 | 936.0 |
| 20260503223601 | 58 | 136 | 3.5 | 6.1 | 0.00 | 0.00 | 0.00 | 47 | 935.9 |
| 20260503223501 | 58 | 155 | 4.3 | 6.1 | 0.00 | 0.00 | 0.00 | 47 | 935.9 |
| 20260503223401 | 58 | 162 | 5.2 | 6.1 | 0.00 | 0.00 | 0.00 | 47 | 936.0 |
| 20260503223301 | 58 | 160 | 3.5 | 7.8 | 0.00 | 0.00 | 0.00 | 47 | 935.9 |
| 20260503223201 | 58 | 177 | 7.0 | 7.8 | 0.00 | 0.00 | 0.00 | 47 | 936.0 |
| 20260503223101 | 58 | 171 | 4.3 | 6.1 | 0.00 | 0.00 | 0.00 | 47 | 935.9 |
| 20260503223001 | 58 | 142 | 6.1 | 6.1 | 0.00 | 0.00 | 0.00 | 47 | 936.1 |
| 20260503222901 | 58 | 159 | 4.3 | 6.1 | 0.00 | 0.00 | 0.00 | 47 | 936.0 |
| 20260503222800 | 58 | 159 | 4.3 | 7.0 | 0.00 | 0.00 | 0.00 | 47 | 935.9 |
| 20260503222701 | 58 | 171 | 5.2 | 7.0 | 0.00 | 0.00 | 0.00 | 47 | 935.8 |
| 20260503222601 | 58 | 151 | 4.3 | 7.0 | 0.00 | 0.00 | 0.00 | 47 | 935.9 |
| 20260503222501 | 58 | 153 | 6.1 | 7.0 | 0.00 | 0.00 | 0.00 | 47 | 935.8 |
| 20260503222401 | 58 | 136 | 4.3 | 6.1 | 0.00 | 0.00 | 0.00 | 47 | 936.0 |
| 20260503222301 | 58 | 142 | 4.3 | 5.2 | 0.00 | 0.00 | 0.00 | 47 | 936.2 |
| 20260503222201 | 58 | 161 | 3.5 | 6.1 | 0.00 | 0.00 | 0.00 | 47 | 936.0 |
| 20260503222101 | 58 | 146 | 4.3 | 6.1 | 0.00 | 0.00 | 0.00 | 47 | 936.0 |
| 20260503222001 | 58 | 130 | 3.5 | 5.2 | 0.00 | 0.00 | 0.00 | 47 | 936.0 |
| 20260503221900 | 58 | 128 | 3.5 | 7.0 | 0.00 | 0.00 | 0.00 | 47 | 936.0 |
| 20260503221801 | 58 | 149 | 5.2 | 7.0 | 0.00 | 0.00 | 0.00 | 46 | 936.0 |
| 20260503221701 | 58 | 179 | 5.2 | 7.0 | 0.00 | 0.00 | 0.00 | 47 | 936.0 |
| 20260503221601 | 58 | 146 | 4.3 | 7.0 | 0.00 | 0.00 | 0.00 | 46 | 936.1 |
| 20260503221501 | 58 | 155 | 5.2 | 6.1 | 0.00 | 0.00 | 0.00 | 47 | 936.1 |
| 20260503221410 | 58 | 182 | 4.3 | 7.0 | 0.00 | 0.00 | 0.00 | 47 | 936.0 |
| 20260503221301 | 58 | 171 | 6.1 | 7.8 | 0.00 | 0.00 | 0.00 | 47 | 936.0 |
| 20260503221201 | 58 | 158 | 4.3 | 7.8 | 0.00 | 0.00 | 0.00 | 47 | 936.2 |